GEFSMW_prec_meanprecacc_288.txt.gz
Total_Precipitation_Accumulation
0.48 0.58 0.66 0.80 0.90 0.98 1.09 1.27 1.45 1.56 1.59 1.61 1.60 1.55 1.67 1.72 1.58 1.49 1.65 1.83 1.93 2.00 1.99 1.84 1.73 1.69 1.63 1.48 1.41 1.36 1.24 1.10 0.99 0.98 0.98 0.89 0.78 0.75 0.65 0.57 0.52 0.50 0.47
0.50 0.56 0.65 0.78 0.87 0.98 1.05 1.21 1.44 1.53 1.50 1.46 1.52 1.52 1.55 1.61 1.62 1.51 1.52 1.66 1.87 2.05 2.21 2.10 1.92 1.81 1.74 1.67 1.54 1.47 1.44 1.35 1.18 1.08 1.11 1.13 1.06 0.89 0.73 0.63 0.53 0.51 0.50
0.50 0.55 0.62 0.72 0.85 1.00 1.05 1.08 1.30 1.56 1.57 1.53 1.63 1.68 1.76 1.78 1.77 1.64 1.50 1.54 1.64 1.76 1.88 1.99 1.89 1.88 1.83 1.77 1.68 1.55 1.50 1.51 1.37 1.17 1.24 1.32 1.18 0.92 0.78 0.70 0.62 0.55 0.53
0.51 0.57 0.63 0.74 0.83 0.98 1.16 1.17 1.23 1.45 1.64 1.63 1.60 1.59 1.66 1.67 1.65 1.57 1.47 1.47 1.58 1.66 1.70 1.79 1.85 1.75 1.69 1.65 1.64 1.59 1.48 1.51 1.52 1.36 1.18 1.10 1.06 1.10 0.97 0.78 0.73 0.71 0.64
0.53 0.60 0.66 0.77 0.90 1.03 1.22 1.31 1.34 1.35 1.53 1.59 1.53 1.51 1.50 1.54 1.63 1.64 1.56 1.50 1.57 1.68 1.73 1.73 1.80 1.85 1.74 1.58 1.52 1.57 1.57 1.52 1.47 1.38 1.25 1.09 0.92 0.90 1.04 0.91 0.80 0.82 0.80
0.58 0.62 0.70 0.84 0.98 1.11 1.27 1.38 1.44 1.35 1.40 1.61 1.58 1.45 1.42 1.42 1.50 1.60 1.69 1.66 1.61 1.65 1.72 1.74 1.71 1.71 1.76 1.73 1.57 1.50 1.54 1.52 1.46 1.41 1.32 1.24 1.16 0.99 0.97 0.93 0.76 0.74 0.73
0.57 0.63 0.72 0.86 0.95 1.06 1.20 1.34 1.38 1.38 1.37 1.50 1.60 1.50 1.39 1.38 1.35 1.41 1.52 1.61 1.62 1.58 1.60 1.66 1.68 1.63 1.62 1.66 1.64 1.57 1.53 1.52 1.52 1.46 1.36 1.25 1.16 1.09 1.12 1.14 0.97 0.80 0.70
0.48 0.58 0.67 0.80 0.90 0.93 1.04 1.20 1.29 1.29 1.32 1.44 1.61 1.61 1.48 1.44 1.33 1.32 1.41 1.47 1.49 1.46 1.44 1.46 1.51 1.49 1.44 1.46 1.53 1.51 1.46 1.48 1.53 1.51 1.46 1.38 1.21 1.15 1.23 1.32 1.38 1.24 0.89
0.46 0.51 0.61 0.67 0.73 0.84 0.93 1.04 1.22 1.31 1.31 1.34 1.52 1.72 1.70 1.55 1.42 1.29 1.33 1.37 1.39 1.42 1.45 1.43 1.41 1.33 1.30 1.29 1.29 1.34 1.32 1.35 1.40 1.45 1.50 1.52 1.38 1.29 1.24 1.28 1.48 1.76 1.54
0.48 0.52 0.56 0.59 0.65 0.75 0.84 0.93 1.11 1.24 1.29 1.29 1.35 1.55 1.79 1.71 1.59 1.53 1.37 1.34 1.34 1.38 1.44 1.45 1.42 1.34 1.24 1.24 1.24 1.20 1.16 1.23 1.26 1.32 1.43 1.49 1.42 1.34 1.28 1.33 1.36 1.47 1.64
0.44 0.48 0.51 0.58 0.64 0.70 0.81 0.91 1.02 1.13 1.19 1.20 1.24 1.34 1.56 1.74 1.74 1.66 1.50 1.34 1.33 1.31 1.30 1.33 1.36 1.32 1.25 1.22 1.28 1.25 1.19 1.21 1.22 1.25 1.30 1.33 1.35 1.38 1.31 1.31 1.33 1.30 1.36
0.38 0.43 0.47 0.56 0.60 0.66 0.78 0.85 0.93 1.07 1.15 1.17 1.20 1.27 1.35 1.50 1.71 1.65 1.50 1.33 1.29 1.31 1.31 1.28 1.30 1.28 1.28 1.26 1.27 1.24 1.19 1.19 1.20 1.21 1.20 1.20 1.24 1.32 1.27 1.23 1.20 1.16 1.11
0.36 0.41 0.49 0.51 0.56 0.65 0.72 0.77 0.85 0.98 1.09 1.17 1.20 1.18 1.24 1.31 1.41 1.53 1.47 1.35 1.27 1.25 1.27 1.30 1.29 1.30 1.31 1.29 1.21 1.21 1.17 1.13 1.15 1.18 1.18 1.15 1.21 1.28 1.24 1.23 1.17 1.07 1.00
0.36 0.39 0.46 0.50 0.53 0.61 0.70 0.72 0.82 0.93 0.98 1.07 1.11 1.10 1.09 1.14 1.18 1.28 1.44 1.44 1.34 1.25 1.19 1.18 1.23 1.32 1.46 1.48 1.41 1.42 1.31 1.18 1.13 1.09 1.07 1.10 1.22 1.26 1.29 1.33 1.23 1.16 1.15
0.34 0.39 0.45 0.50 0.55 0.62 0.70 0.75 0.79 0.81 0.85 0.96 1.01 1.05 1.07 1.14 1.16 1.13 1.25 1.42 1.37 1.22 1.13 1.11 1.16 1.25 1.60 1.97 1.95 1.85 1.58 1.28 1.12 1.03 1.02 1.08 1.23 1.30 1.48 1.62 1.50 1.46 1.55
0.38 0.40 0.45 0.48 0.56 0.63 0.72 0.83 0.83 0.82 0.78 0.85 0.94 1.00 1.08 1.20 1.21 1.15 1.19 1.31 1.38 1.31 1.20 1.12 1.11 1.15 1.44 2.11 2.23 1.90 1.45 1.24 1.12 1.07 1.02 1.03 1.16 1.20 1.33 1.53 1.63 1.69 1.80
0.42 0.42 0.46 0.52 0.60 0.65 0.73 0.84 0.85 0.84 0.81 0.81 0.87 0.93 0.98 1.14 1.20 1.18 1.24 1.28 1.35 1.41 1.39 1.23 1.11 1.07 1.24 1.89 2.03 1.75 1.35 1.18 1.12 1.06 1.05 1.05 1.10 1.17 1.15 1.27 1.34 1.38 1.54
0.43 0.44 0.49 0.54 0.57 0.62 0.68 0.75 0.80 0.80 0.84 0.85 0.88 0.92 0.93 0.97 1.12 1.23 1.26 1.27 1.29 1.32 1.38 1.32 1.20 1.09 1.15 1.69 1.85 1.64 1.32 1.19 1.12 1.04 1.02 1.02 1.05 1.15 1.35 1.32 1.27 1.18 1.19
0.45 0.47 0.51 0.54 0.54 0.56 0.61 0.72 0.78 0.78 0.85 0.93 0.94 0.92 0.87 0.89 1.01 1.12 1.23 1.27 1.28 1.23 1.25 1.24 1.22 1.16 1.13 1.47 1.73 1.56 1.25 1.20 1.12 1.01 0.99 1.01 1.01 1.26 1.53 1.45 1.30 1.13 1.03
0.41 0.46 0.48 0.47 0.50 0.54 0.57 0.69 0.78 0.76 0.82 0.90 0.96 0.88 0.79 0.76 0.80 0.92 1.11 1.23 1.23 1.17 1.18 1.18 1.18 1.11 1.03 1.28 1.55 1.55 1.24 1.15 1.10 1.06 1.02 1.14 1.23 1.41 1.55 1.41 1.36 1.44 1.22
0.37 0.40 0.42 0.43 0.51 0.56 0.56 0.64 0.74 0.80 0.83 0.89 0.95 0.87 0.78 0.76 0.78 0.85 1.02 1.15 1.22 1.21 1.15 1.11 1.12 1.07 1.04 1.15 1.33 1.54 1.34 1.17 1.12 1.10 1.07 1.06 1.30 1.40 1.48 1.50 1.43 1.66 1.55
0.30 0.31 0.36 0.40 0.47 0.54 0.57 0.64 0.72 0.79 0.87 0.91 0.90 0.89 0.86 0.82 0.83 0.88 1.00 1.13 1.20 1.26 1.20 1.10 1.07 1.05 1.04 1.14 1.27 1.45 1.48 1.36 1.15 1.06 0.96 1.01 1.25 1.34 1.45 1.43 1.50 1.61 1.55
0.30 0.30 0.34 0.37 0.44 0.52 0.58 0.68 0.75 0.75 0.82 0.88 0.89 0.90 0.90 0.88 0.89 0.93 1.02 1.14 1.20 1.24 1.22 1.12 1.05 1.03 0.98 1.12 1.37 1.30 1.34 1.39 1.19 1.06 1.15 1.22 1.32 1.33 1.27 1.32 1.41 1.39 1.31
0.29 0.30 0.33 0.36 0.45 0.52 0.56 0.65 0.73 0.71 0.72 0.77 0.84 0.84 0.89 0.94 0.97 1.00 1.03 1.11 1.20 1.25 1.16 1.09 1.00 0.95 0.97 1.16 1.32 1.26 1.22 1.30 1.29 1.24 1.28 1.36 1.34 1.24 1.15 1.18 1.20 1.14 1.22
0.32 0.33 0.36 0.39 0.47 0.55 0.61 0.67 0.68 0.66 0.67 0.70 0.80 0.87 0.91 0.97 1.00 1.02 1.07 1.13 1.14 1.27 1.23 1.09 1.02 1.02 1.13 1.32 1.44 1.37 1.29 1.28 1.31 1.41 1.48 1.40 1.32 1.27 1.16 1.05 1.00 1.03 1.18
0.36 0.35 0.37 0.42 0.49 0.56 0.68 0.70 0.65 0.63 0.66 0.71 0.77 0.86 0.93 0.95 0.94 0.92 0.99 1.15 1.17 1.20 1.15 1.09 1.06 1.01 1.17 1.33 1.39 1.45 1.47 1.48 1.55 1.59 1.51 1.30 1.15 1.11 1.07 1.04 1.02 0.97 1.00

GEFSMW_prec_meanprecacc_294.txt.gz
Total_Precipitation_Accumulation
0.48 0.58 0.67 0.81 0.90 0.99 1.10 1.28 1.46 1.58 1.61 1.64 1.63 1.58 1.69 1.74 1.59 1.50 1.66 1.85 1.96 2.06 2.06 1.90 1.78 1.73 1.66 1.51 1.43 1.39 1.30 1.16 1.02 1.00 1.01 0.91 0.81 0.79 0.69 0.60 0.55 0.52 0.48
0.50 0.57 0.65 0.78 0.87 0.99 1.06 1.22 1.44 1.54 1.52 1.49 1.55 1.55 1.58 1.64 1.65 1.52 1.54 1.68 1.91 2.12 2.30 2.18 1.99 1.86 1.78 1.69 1.56 1.49 1.48 1.40 1.21 1.11 1.14 1.16 1.10 0.93 0.77 0.66 0.56 0.53 0.52
0.51 0.56 0.62 0.72 0.85 1.00 1.05 1.08 1.30 1.57 1.59 1.56 1.67 1.72 1.80 1.82 1.80 1.66 1.52 1.56 1.68 1.84 1.97 2.07 1.95 1.93 1.87 1.80 1.70 1.57 1.53 1.56 1.42 1.20 1.26 1.35 1.22 0.96 0.83 0.74 0.64 0.56 0.54
0.51 0.57 0.63 0.74 0.83 0.98 1.16 1.17 1.23 1.46 1.67 1.66 1.64 1.63 1.71 1.70 1.69 1.62 1.50 1.50 1.61 1.72 1.78 1.87 1.92 1.80 1.73 1.68 1.66 1.62 1.51 1.54 1.57 1.40 1.20 1.12 1.08 1.13 1.02 0.82 0.75 0.73 0.65
0.54 0.60 0.66 0.78 0.90 1.03 1.22 1.31 1.34 1.36 1.55 1.61 1.56 1.54 1.54 1.58 1.68 1.69 1.60 1.53 1.60 1.72 1.78 1.79 1.85 1.89 1.78 1.62 1.57 1.60 1.61 1.56 1.51 1.43 1.29 1.12 0.95 0.92 1.07 0.95 0.83 0.84 0.81
0.58 0.63 0.70 0.84 0.98 1.11 1.27 1.38 1.44 1.36 1.41 1.62 1.59 1.48 1.44 1.44 1.54 1.65 1.73 1.69 1.64 1.68 1.75 1.80 1.76 1.76 1.81 1.78 1.62 1.54 1.58 1.56 1.50 1.44 1.37 1.29 1.20 1.03 1.01 0.98 0.80 0.77 0.75
0.57 0.64 0.72 0.86 0.95 1.06 1.20 1.34 1.38 1.38 1.37 1.51 1.61 1.51 1.40 1.39 1.37 1.44 1.56 1.64 1.65 1.61 1.63 1.71 1.74 1.68 1.66 1.71 1.70 1.61 1.58 1.56 1.55 1.49 1.39 1.29 1.21 1.13 1.16 1.18 1.00 0.82 0.72
0.49 0.58 0.67 0.80 0.90 0.94 1.04 1.20 1.29 1.29 1.32 1.45 1.61 1.62 1.48 1.45 1.34 1.34 1.43 1.50 1.51 1.48 1.46 1.50 1.56 1.53 1.48 1.51 1.58 1.57 1.52 1.53 1.56 1.54 1.49 1.41 1.25 1.19 1.26 1.35 1.41 1.26 0.91
0.46 0.52 0.62 0.67 0.73 0.84 0.93 1.04 1.22 1.31 1.31 1.34 1.53 1.73 1.71 1.56 1.43 1.31 1.35 1.40 1.41 1.43 1.47 1.46 1.44 1.37 1.34 1.33 1.36 1.40 1.38 1.41 1.46 1.49 1.54 1.55 1.41 1.31 1.26 1.31 1.51 1.80 1.58
0.48 0.53 0.57 0.60 0.65 0.75 0.84 0.93 1.11 1.24 1.29 1.29 1.36 1.56 1.79 1.73 1.61 1.55 1.38 1.36 1.37 1.40 1.45 1.47 1.44 1.37 1.28 1.29 1.30 1.26 1.22 1.28 1.32 1.36 1.46 1.52 1.45 1.36 1.30 1.35 1.38 1.50 1.68
0.44 0.48 0.51 0.59 0.64 0.70 0.81 0.91 1.02 1.13 1.19 1.20 1.25 1.34 1.56 1.74 1.75 1.68 1.52 1.36 1.35 1.33 1.31 1.34 1.38 1.35 1.29 1.27 1.33 1.31 1.24 1.26 1.26 1.29 1.33 1.36 1.38 1.40 1.33 1.33 1.35 1.32 1.38
0.38 0.43 0.47 0.56 0.60 0.67 0.78 0.85 0.94 1.07 1.15 1.17 1.21 1.27 1.36 1.51 1.72 1.66 1.52 1.35 1.31 1.32 1.33 1.30 1.32 1.30 1.30 1.29 1.31 1.30 1.24 1.24 1.23 1.24 1.23 1.23 1.27 1.35 1.29 1.25 1.22 1.17 1.12
0.36 0.41 0.49 0.51 0.56 0.66 0.73 0.77 0.85 0.98 1.09 1.17 1.20 1.19 1.25 1.32 1.42 1.54 1.49 1.37 1.29 1.27 1.29 1.31 1.31 1.32 1.34 1.32 1.24 1.26 1.22 1.18 1.19 1.21 1.22 1.18 1.24 1.31 1.26 1.24 1.18 1.08 1.01
0.36 0.39 0.46 0.50 0.53 0.61 0.70 0.73 0.83 0.93 0.98 1.07 1.12 1.11 1.10 1.15 1.19 1.29 1.46 1.45 1.36 1.26 1.20 1.20 1.25 1.34 1.49 1.51 1.44 1.47 1.35 1.23 1.17 1.13 1.11 1.13 1.24 1.28 1.31 1.34 1.24 1.16 1.16
0.35 0.39 0.45 0.50 0.55 0.62 0.70 0.76 0.80 0.82 0.86 0.96 1.02 1.06 1.08 1.15 1.18 1.15 1.26 1.43 1.38 1.23 1.15 1.12 1.17 1.27 1.63 2.01 1.99 1.89 1.62 1.32 1.16 1.08 1.07 1.13 1.27 1.33 1.50 1.63 1.51 1.47 1.56
0.38 0.40 0.45 0.49 0.56 0.63 0.73 0.83 0.84 0.83 0.79 0.85 0.94 1.01 1.09 1.22 1.23 1.17 1.20 1.32 1.39 1.32 1.21 1.13 1.13 1.18 1.47 2.14 2.28 1.94 1.49 1.28 1.16 1.11 1.07 1.07 1.20 1.23 1.35 1.55 1.64 1.70 1.81
0.43 0.43 0.47 0.52 0.60 0.65 0.74 0.85 0.86 0.85 0.82 0.81 0.88 0.94 1.00 1.16 1.23 1.21 1.26 1.30 1.37 1.43 1.41 1.25 1.13 1.09 1.27 1.93 2.07 1.79 1.39 1.22 1.15 1.09 1.08 1.08 1.13 1.20 1.18 1.29 1.35 1.39 1.55
0.44 0.45 0.49 0.54 0.57 0.63 0.68 0.76 0.81 0.81 0.85 0.86 0.89 0.93 0.94 1.00 1.15 1.25 1.28 1.29 1.32 1.35 1.41 1.35 1.23 1.13 1.20 1.73 1.91 1.70 1.36 1.22 1.15 1.07 1.06 1.06 1.08 1.18 1.38 1.34 1.29 1.19 1.21
0.46 0.48 0.52 0.55 0.56 0.57 0.62 0.73 0.79 0.78 0.86 0.93 0.95 0.92 0.88 0.92 1.04 1.15 1.25 1.29 1.30 1.26 1.28 1.27 1.25 1.20 1.17 1.53 1.80 1.62 1.30 1.24 1.16 1.06 1.03 1.04 1.05 1.29 1.56 1.48 1.33 1.15 1.06
0.42 0.47 0.49 0.48 0.51 0.55 0.59 0.70 0.79 0.76 0.83 0.90 0.96 0.89 0.80 0.78 0.82 0.94 1.13 1.24 1.25 1.20 1.20 1.21 1.22 1.15 1.07 1.33 1.61 1.60 1.30 1.20 1.15 1.10 1.05 1.17 1.26 1.44 1.57 1.44 1.40 1.48 1.26
0.39 0.41 0.43 0.44 0.53 0.58 0.57 0.64 0.74 0.80 0.84 0.89 0.96 0.88 0.79 0.78 0.79 0.86 1.04 1.17 1.24 1.23 1.17 1.14 1.15 1.10 1.08 1.19 1.38 1.59 1.38 1.22 1.16 1.14 1.10 1.08 1.32 1.42 1.50 1.52 1.47 1.70 1.59
0.32 0.33 0.37 0.42 0.49 0.55 0.59 0.65 0.72 0.79 0.87 0.91 0.90 0.90 0.87 0.83 0.84 0.88 1.01 1.14 1.22 1.28 1.22 1.13 1.10 1.08 1.07 1.17 1.31 1.48 1.51 1.39 1.18 1.08 0.98 1.04 1.27 1.36 1.47 1.46 1.54 1.66 1.59
0.31 0.31 0.35 0.39 0.45 0.53 0.60 0.69 0.76 0.75 0.83 0.88 0.90 0.90 0.91 0.89 0.90 0.94 1.03 1.15 1.21 1.25 1.23 1.14 1.08 1.06 1.01 1.16 1.41 1.34 1.38 1.42 1.22 1.08 1.17 1.24 1.34 1.36 1.29 1.35 1.44 1.42 1.35
0.30 0.31 0.34 0.37 0.46 0.53 0.57 0.66 0.73 0.72 0.72 0.78 0.85 0.85 0.89 0.94 0.98 1.01 1.04 1.12 1.21 1.27 1.18 1.11 1.03 0.97 1.00 1.19 1.36 1.29 1.26 1.34 1.32 1.26 1.31 1.38 1.36 1.27 1.18 1.21 1.22 1.17 1.26
0.33 0.34 0.37 0.40 0.48 0.55 0.62 0.68 0.69 0.67 0.68 0.70 0.81 0.87 0.92 0.98 1.01 1.04 1.08 1.15 1.17 1.30 1.25 1.11 1.04 1.05 1.16 1.35 1.46 1.40 1.32 1.31 1.33 1.44 1.50 1.43 1.34 1.30 1.18 1.08 1.03 1.06 1.22
0.37 0.37 0.38 0.43 0.50 0.57 0.68 0.71 0.66 0.64 0.67 0.72 0.78 0.87 0.94 0.96 0.95 0.94 1.01 1.17 1.20 1.23 1.18 1.11 1.08 1.03 1.20 1.36 1.41 1.48 1.50 1.50 1.57 1.61 1.53 1.32 1.17 1.13 1.09 1.07 1.04 1.00 1.03

GEFSMW_prec_meanprecacc_300.txt.gz
Total_Precipitation_Accumulation
0.48 0.58 0.67 0.81 0.91 0.99 1.11 1.28 1.46 1.58 1.61 1.65 1.64 1.59 1.72 1.77 1.63 1.54 1.70 1.88 1.99 2.09 2.10 1.95 1.84 1.77 1.68 1.52 1.44 1.40 1.31 1.16 1.03 1.02 1.03 0.94 0.83 0.80 0.69 0.60 0.55 0.52 0.49
0.50 0.57 0.65 0.79 0.88 0.99 1.06 1.22 1.45 1.54 1.52 1.49 1.56 1.57 1.60 1.66 1.67 1.54 1.56 1.71 1.94 2.14 2.34 2.23 2.05 1.93 1.82 1.72 1.57 1.50 1.50 1.42 1.23 1.12 1.16 1.18 1.12 0.95 0.78 0.67 0.57 0.54 0.53
0.51 0.56 0.62 0.73 0.85 1.00 1.05 1.08 1.30 1.57 1.59 1.57 1.68 1.73 1.81 1.83 1.82 1.68 1.54 1.58 1.70 1.85 2.00 2.11 2.01 1.99 1.93 1.85 1.73 1.59 1.55 1.58 1.44 1.21 1.27 1.37 1.23 0.97 0.84 0.74 0.65 0.57 0.55
0.51 0.58 0.63 0.74 0.83 0.98 1.16 1.17 1.23 1.46 1.67 1.66 1.64 1.64 1.72 1.72 1.71 1.63 1.51 1.51 1.63 1.74 1.80 1.91 1.96 1.84 1.77 1.72 1.70 1.65 1.53 1.56 1.59 1.43 1.22 1.13 1.09 1.15 1.03 0.83 0.76 0.73 0.67
0.54 0.60 0.66 0.78 0.90 1.03 1.22 1.32 1.34 1.36 1.55 1.62 1.57 1.55 1.56 1.60 1.69 1.70 1.62 1.55 1.62 1.74 1.81 1.83 1.88 1.92 1.80 1.65 1.59 1.63 1.63 1.58 1.54 1.46 1.31 1.13 0.96 0.94 1.09 0.97 0.84 0.85 0.82
0.58 0.63 0.70 0.84 0.99 1.11 1.28 1.38 1.45 1.36 1.41 1.63 1.60 1.49 1.45 1.46 1.56 1.67 1.75 1.71 1.65 1.70 1.78 1.83 1.78 1.78 1.84 1.81 1.65 1.57 1.61 1.58 1.52 1.47 1.39 1.31 1.22 1.04 1.02 0.99 0.81 0.78 0.76
0.58 0.64 0.73 0.87 0.96 1.07 1.20 1.34 1.38 1.39 1.38 1.52 1.61 1.51 1.41 1.40 1.39 1.46 1.57 1.65 1.67 1.63 1.66 1.74 1.77 1.71 1.70 1.74 1.72 1.64 1.60 1.57 1.56 1.50 1.41 1.31 1.22 1.14 1.17 1.20 1.02 0.84 0.73
0.49 0.58 0.68 0.80 0.90 0.94 1.05 1.20 1.30 1.30 1.33 1.46 1.62 1.63 1.49 1.46 1.35 1.35 1.44 1.52 1.53 1.50 1.48 1.53 1.60 1.57 1.52 1.54 1.61 1.59 1.53 1.55 1.58 1.55 1.51 1.43 1.27 1.20 1.28 1.37 1.44 1.29 0.93
0.46 0.52 0.62 0.68 0.74 0.84 0.93 1.04 1.22 1.31 1.32 1.35 1.53 1.73 1.72 1.57 1.44 1.32 1.36 1.42 1.43 1.45 1.48 1.48 1.48 1.42 1.38 1.36 1.38 1.42 1.40 1.43 1.48 1.51 1.55 1.57 1.43 1.32 1.28 1.33 1.53 1.83 1.61
0.49 0.53 0.57 0.60 0.66 0.76 0.84 0.93 1.11 1.25 1.30 1.30 1.36 1.56 1.80 1.73 1.62 1.56 1.40 1.37 1.38 1.41 1.46 1.48 1.48 1.42 1.32 1.32 1.33 1.29 1.24 1.30 1.35 1.39 1.48 1.54 1.48 1.38 1.32 1.36 1.40 1.52 1.71
0.44 0.49 0.51 0.59 0.64 0.71 0.82 0.92 1.02 1.13 1.20 1.21 1.25 1.35 1.57 1.75 1.77 1.69 1.54 1.39 1.37 1.35 1.32 1.36 1.40 1.39 1.33 1.31 1.38 1.35 1.28 1.29 1.29 1.32 1.35 1.38 1.40 1.42 1.35 1.34 1.36 1.34 1.40
0.38 0.43 0.47 0.56 0.61 0.67 0.79 0.86 0.94 1.07 1.15 1.17 1.21 1.28 1.36 1.51 1.72 1.67 1.52 1.36 1.32 1.34 1.34 1.31 1.33 1.33 1.33 1.34 1.36 1.34 1.28 1.28 1.27 1.27 1.26 1.26 1.30 1.37 1.31 1.27 1.24 1.20 1.15
0.37 0.41 0.49 0.52 0.57 0.66 0.73 0.78 0.85 0.98 1.09 1.17 1.20 1.19 1.25 1.32 1.43 1.55 1.49 1.38 1.30 1.28 1.30 1.33 1.32 1.34 1.36 1.35 1.29 1.31 1.27 1.22 1.23 1.25 1.25 1.21 1.27 1.34 1.29 1.27 1.21 1.11 1.03
0.36 0.39 0.47 0.50 0.54 0.61 0.71 0.73 0.83 0.94 0.98 1.08 1.12 1.12 1.11 1.16 1.20 1.30 1.46 1.46 1.37 1.28 1.22 1.21 1.27 1.36 1.51 1.54 1.49 1.51 1.40 1.28 1.22 1.18 1.15 1.17 1.29 1.32 1.34 1.38 1.28 1.20 1.19
0.35 0.39 0.46 0.51 0.55 0.62 0.71 0.76 0.80 0.82 0.86 0.97 1.02 1.07 1.09 1.16 1.19 1.16 1.27 1.44 1.39 1.24 1.16 1.14 1.19 1.29 1.66 2.04 2.03 1.94 1.68 1.38 1.22 1.13 1.11 1.17 1.32 1.38 1.54 1.67 1.55 1.51 1.59
0.39 0.40 0.46 0.49 0.56 0.64 0.73 0.84 0.84 0.83 0.79 0.86 0.95 1.01 1.10 1.23 1.24 1.18 1.21 1.33 1.40 1.33 1.22 1.15 1.15 1.20 1.49 2.17 2.31 1.99 1.54 1.34 1.22 1.17 1.11 1.11 1.25 1.29 1.41 1.60 1.68 1.74 1.85
0.44 0.44 0.48 0.52 0.61 0.66 0.75 0.85 0.87 0.86 0.82 0.82 0.88 0.95 1.01 1.18 1.24 1.22 1.27 1.31 1.38 1.44 1.42 1.26 1.15 1.11 1.30 1.96 2.11 1.84 1.44 1.28 1.21 1.14 1.13 1.13 1.18 1.25 1.23 1.35 1.41 1.45 1.59
0.46 0.46 0.50 0.55 0.58 0.64 0.69 0.77 0.81 0.82 0.87 0.87 0.90 0.94 0.95 1.01 1.16 1.27 1.29 1.30 1.33 1.36 1.42 1.36 1.25 1.15 1.22 1.77 1.95 1.74 1.41 1.28 1.21 1.11 1.10 1.10 1.13 1.23 1.43 1.40 1.35 1.25 1.26
0.48 0.51 0.54 0.57 0.58 0.59 0.64 0.73 0.79 0.79 0.88 0.95 0.96 0.94 0.90 0.93 1.05 1.16 1.27 1.30 1.31 1.27 1.29 1.29 1.28 1.22 1.20 1.57 1.84 1.66 1.35 1.31 1.22 1.10 1.07 1.09 1.09 1.35 1.62 1.53 1.38 1.20 1.10
0.46 0.51 0.53 0.51 0.54 0.57 0.60 0.71 0.79 0.77 0.86 0.93 0.98 0.90 0.81 0.79 0.83 0.95 1.15 1.26 1.26 1.20 1.21 1.22 1.24 1.17 1.11 1.38 1.66 1.65 1.35 1.26 1.21 1.14 1.09 1.22 1.30 1.49 1.63 1.49 1.45 1.53 1.30
0.42 0.44 0.45 0.46 0.55 0.60 0.60 0.66 0.75 0.82 0.86 0.92 0.97 0.89 0.80 0.78 0.80 0.87 1.04 1.18 1.25 1.24 1.18 1.15 1.16 1.12 1.11 1.23 1.43 1.64 1.44 1.27 1.21 1.18 1.14 1.12 1.36 1.46 1.54 1.56 1.52 1.75 1.64
0.34 0.35 0.39 0.43 0.50 0.57 0.61 0.67 0.74 0.81 0.89 0.94 0.93 0.91 0.88 0.84 0.85 0.89 1.02 1.15 1.22 1.29 1.24 1.14 1.12 1.11 1.11 1.21 1.35 1.53 1.56 1.43 1.22 1.11 1.00 1.06 1.29 1.38 1.50 1.48 1.57 1.70 1.63
0.32 0.33 0.37 0.40 0.47 0.54 0.61 0.71 0.77 0.77 0.84 0.91 0.93 0.92 0.92 0.90 0.91 0.95 1.03 1.15 1.22 1.27 1.25 1.17 1.11 1.09 1.04 1.19 1.45 1.39 1.42 1.46 1.25 1.10 1.18 1.26 1.36 1.37 1.30 1.37 1.46 1.45 1.38
0.31 0.32 0.35 0.38 0.47 0.54 0.58 0.68 0.76 0.73 0.74 0.80 0.89 0.88 0.91 0.96 0.99 1.02 1.05 1.13 1.23 1.29 1.20 1.14 1.06 1.01 1.03 1.23 1.40 1.34 1.31 1.39 1.35 1.28 1.33 1.40 1.38 1.28 1.19 1.23 1.24 1.19 1.29
0.34 0.35 0.38 0.40 0.49 0.56 0.63 0.70 0.71 0.69 0.69 0.72 0.83 0.90 0.94 1.00 1.03 1.05 1.10 1.17 1.18 1.32 1.28 1.15 1.08 1.09 1.20 1.39 1.51 1.45 1.37 1.36 1.37 1.46 1.52 1.44 1.35 1.31 1.20 1.09 1.04 1.08 1.24
0.38 0.38 0.40 0.43 0.50 0.58 0.69 0.72 0.68 0.66 0.69 0.73 0.79 0.89 0.96 0.98 0.97 0.95 1.02 1.19 1.21 1.25 1.21 1.15 1.12 1.07 1.24 1.40 1.45 1.52 1.54 1.55 1.61 1.65 1.56 1.34 1.19 1.14 1.11 1.08 1.06 1.02 1.05

GEFSMW_prec_meanprecacc_306.txt.gz
Total_Precipitation_Accumulation
0.48 0.59 0.67 0.82 0.92 0.99 1.11 1.29 1.47 1.59 1.63 1.66 1.65 1.60 1.72 1.77 1.64 1.56 1.73 1.92 2.04 2.15 2.16 2.01 1.90 1.83 1.72 1.54 1.45 1.42 1.32 1.18 1.04 1.04 1.05 0.96 0.85 0.81 0.70 0.61 0.55 0.53 0.49
0.50 0.57 0.65 0.79 0.88 0.99 1.06 1.23 1.45 1.55 1.53 1.50 1.57 1.58 1.60 1.66 1.68 1.56 1.58 1.74 1.97 2.19 2.40 2.30 2.13 2.00 1.89 1.77 1.60 1.51 1.51 1.43 1.25 1.14 1.18 1.21 1.15 0.97 0.79 0.67 0.57 0.54 0.53
0.51 0.56 0.63 0.73 0.85 1.00 1.05 1.09 1.31 1.58 1.60 1.57 1.69 1.74 1.82 1.84 1.82 1.68 1.55 1.59 1.72 1.88 2.04 2.15 2.06 2.06 2.00 1.92 1.79 1.63 1.57 1.60 1.47 1.24 1.30 1.39 1.25 1.00 0.86 0.75 0.65 0.57 0.56
0.51 0.58 0.63 0.74 0.83 0.98 1.16 1.17 1.23 1.47 1.68 1.67 1.65 1.65 1.73 1.73 1.71 1.64 1.52 1.52 1.64 1.75 1.83 1.93 1.99 1.87 1.80 1.76 1.75 1.69 1.56 1.59 1.62 1.46 1.24 1.15 1.11 1.16 1.05 0.85 0.77 0.74 0.67
0.54 0.60 0.66 0.78 0.90 1.03 1.22 1.32 1.34 1.36 1.56 1.63 1.58 1.56 1.57 1.62 1.70 1.71 1.63 1.56 1.63 1.75 1.83 1.84 1.90 1.94 1.83 1.68 1.61 1.65 1.66 1.60 1.56 1.49 1.35 1.16 0.98 0.95 1.10 0.98 0.84 0.86 0.83
0.58 0.63 0.71 0.84 0.99 1.12 1.28 1.38 1.45 1.36 1.42 1.63 1.62 1.50 1.47 1.48 1.57 1.68 1.76 1.72 1.67 1.71 1.80 1.84 1.80 1.79 1.85 1.83 1.67 1.59 1.64 1.60 1.55 1.50 1.43 1.36 1.25 1.05 1.03 1.00 0.82 0.79 0.77
0.58 0.64 0.73 0.87 0.96 1.07 1.20 1.34 1.39 1.39 1.38 1.53 1.63 1.52 1.43 1.42 1.41 1.47 1.59 1.67 1.68 1.64 1.67 1.76 1.79 1.73 1.71 1.76 1.75 1.67 1.63 1.61 1.59 1.54 1.45 1.35 1.26 1.17 1.18 1.21 1.03 0.85 0.74
0.49 0.58 0.68 0.80 0.90 0.94 1.05 1.20 1.30 1.30 1.33 1.46 1.63 1.64 1.51 1.49 1.38 1.37 1.45 1.53 1.55 1.52 1.49 1.54 1.62 1.59 1.54 1.57 1.66 1.63 1.56 1.58 1.61 1.58 1.54 1.46 1.30 1.23 1.29 1.39 1.45 1.30 0.94
0.46 0.52 0.62 0.68 0.74 0.85 0.94 1.04 1.22 1.32 1.32 1.35 1.54 1.74 1.73 1.59 1.46 1.34 1.38 1.44 1.46 1.47 1.50 1.50 1.50 1.44 1.40 1.40 1.43 1.47 1.43 1.46 1.51 1.54 1.57 1.59 1.46 1.35 1.30 1.34 1.54 1.85 1.62
0.49 0.53 0.57 0.60 0.66 0.76 0.85 0.94 1.11 1.25 1.30 1.30 1.37 1.57 1.81 1.74 1.63 1.58 1.42 1.40 1.41 1.43 1.48 1.50 1.49 1.44 1.35 1.36 1.37 1.33 1.27 1.33 1.37 1.41 1.50 1.56 1.49 1.41 1.34 1.38 1.41 1.53 1.73
0.44 0.49 0.52 0.59 0.65 0.71 0.82 0.92 1.03 1.13 1.20 1.21 1.25 1.35 1.57 1.76 1.77 1.70 1.56 1.40 1.38 1.36 1.34 1.38 1.42 1.42 1.37 1.34 1.41 1.37 1.29 1.30 1.31 1.33 1.37 1.40 1.42 1.45 1.37 1.36 1.37 1.35 1.42
0.38 0.43 0.48 0.56 0.61 0.68 0.79 0.86 0.94 1.08 1.15 1.18 1.21 1.28 1.36 1.52 1.73 1.67 1.53 1.37 1.32 1.35 1.35 1.33 1.35 1.36 1.37 1.38 1.40 1.37 1.30 1.29 1.28 1.28 1.27 1.27 1.32 1.39 1.33 1.29 1.25 1.21 1.17
0.37 0.41 0.49 0.52 0.58 0.67 0.74 0.78 0.85 0.98 1.09 1.17 1.20 1.19 1.25 1.33 1.43 1.56 1.50 1.38 1.30 1.28 1.31 1.34 1.34 1.37 1.40 1.39 1.33 1.34 1.29 1.24 1.24 1.26 1.26 1.22 1.29 1.36 1.30 1.29 1.22 1.13 1.07
0.37 0.40 0.47 0.50 0.54 0.62 0.71 0.74 0.83 0.94 0.99 1.08 1.12 1.12 1.11 1.16 1.20 1.30 1.47 1.46 1.37 1.28 1.23 1.22 1.28 1.38 1.54 1.59 1.54 1.55 1.43 1.31 1.24 1.19 1.16 1.18 1.30 1.34 1.35 1.39 1.29 1.22 1.23
0.35 0.40 0.46 0.51 0.56 0.63 0.71 0.77 0.80 0.82 0.86 0.97 1.02 1.07 1.09 1.16 1.19 1.16 1.27 1.44 1.39 1.25 1.17 1.15 1.21 1.31 1.69 2.09 2.09 1.98 1.71 1.41 1.24 1.15 1.13 1.18 1.33 1.39 1.56 1.69 1.57 1.54 1.64
0.39 0.41 0.46 0.50 0.57 0.65 0.74 0.85 0.85 0.83 0.79 0.86 0.95 1.01 1.10 1.24 1.24 1.18 1.22 1.33 1.40 1.33 1.23 1.16 1.16 1.22 1.52 2.22 2.38 2.04 1.58 1.37 1.25 1.19 1.13 1.13 1.26 1.30 1.43 1.62 1.71 1.77 1.90
0.45 0.44 0.48 0.53 0.61 0.67 0.75 0.86 0.87 0.86 0.82 0.82 0.89 0.95 1.01 1.18 1.25 1.22 1.27 1.32 1.38 1.44 1.42 1.27 1.16 1.13 1.32 2.00 2.16 1.89 1.48 1.31 1.24 1.17 1.15 1.14 1.20 1.27 1.24 1.37 1.44 1.48 1.64
0.47 0.47 0.51 0.56 0.59 0.65 0.70 0.77 0.82 0.82 0.87 0.87 0.90 0.95 0.96 1.02 1.16 1.27 1.30 1.31 1.33 1.37 1.43 1.37 1.26 1.16 1.24 1.80 1.98 1.78 1.45 1.31 1.23 1.14 1.12 1.12 1.15 1.25 1.46 1.42 1.38 1.29 1.31
0.50 0.52 0.55 0.58 0.59 0.60 0.64 0.74 0.80 0.80 0.88 0.95 0.96 0.94 0.90 0.93 1.05 1.17 1.28 1.31 1.32 1.28 1.30 1.30 1.29 1.23 1.22 1.58 1.86 1.69 1.38 1.33 1.24 1.12 1.10 1.12 1.13 1.39 1.67 1.57 1.42 1.26 1.17
0.48 0.53 0.55 0.53 0.56 0.58 0.61 0.71 0.80 0.78 0.86 0.93 0.98 0.91 0.81 0.80 0.83 0.96 1.15 1.27 1.28 1.22 1.22 1.24 1.25 1.18 1.12 1.39 1.68 1.67 1.37 1.29 1.23 1.16 1.12 1.25 1.34 1.54 1.68 1.53 1.49 1.57 1.36
0.44 0.47 0.48 0.49 0.57 0.61 0.60 0.67 0.75 0.82 0.86 0.92 0.98 0.90 0.80 0.79 0.81 0.88 1.06 1.19 1.27 1.26 1.20 1.16 1.18 1.14 1.12 1.25 1.44 1.66 1.46 1.30 1.24 1.21 1.17 1.15 1.40 1.51 1.59 1.62 1.57 1.80 1.69
0.36 0.38 0.42 0.46 0.53 0.59 0.62 0.68 0.75 0.81 0.89 0.95 0.93 0.92 0.89 0.85 0.86 0.90 1.03 1.16 1.24 1.31 1.26 1.16 1.13 1.12 1.12 1.22 1.37 1.55 1.59 1.46 1.25 1.14 1.04 1.10 1.34 1.43 1.54 1.54 1.63 1.76 1.68
0.35 0.35 0.39 0.42 0.49 0.56 0.63 0.73 0.79 0.79 0.86 0.92 0.94 0.94 0.94 0.92 0.93 0.96 1.05 1.17 1.24 1.29 1.27 1.18 1.12 1.10 1.05 1.20 1.47 1.41 1.45 1.48 1.27 1.13 1.22 1.30 1.40 1.41 1.34 1.41 1.52 1.50 1.43
0.33 0.34 0.37 0.40 0.49 0.56 0.60 0.70 0.78 0.76 0.76 0.81 0.90 0.91 0.94 0.98 1.02 1.04 1.07 1.15 1.25 1.31 1.22 1.15 1.08 1.03 1.05 1.25 1.42 1.36 1.34 1.41 1.38 1.32 1.37 1.44 1.42 1.31 1.22 1.26 1.28 1.23 1.33
0.36 0.37 0.40 0.43 0.50 0.58 0.64 0.71 0.73 0.71 0.71 0.74 0.86 0.94 0.98 1.03 1.07 1.08 1.13 1.19 1.20 1.34 1.30 1.17 1.09 1.11 1.22 1.42 1.54 1.48 1.40 1.40 1.40 1.49 1.56 1.48 1.39 1.35 1.23 1.12 1.07 1.12 1.28
0.40 0.40 0.42 0.46 0.52 0.59 0.70 0.74 0.70 0.68 0.71 0.75 0.81 0.92 1.00 1.01 1.01 1.00 1.06 1.22 1.24 1.28 1.24 1.18 1.15 1.09 1.27 1.43 1.48 1.55 1.57 1.58 1.65 1.68 1.59 1.37 1.22 1.17 1.13 1.11 1.09 1.04 1.08

GEFSMW_prec_meanprecacc_312.txt.gz
Total_Precipitation_Accumulation
0.48 0.59 0.67 0.82 0.92 1.00 1.12 1.30 1.48 1.60 1.64 1.68 1.68 1.62 1.75 1.80 1.66 1.58 1.74 1.93 2.05 2.15 2.17 2.01 1.90 1.84 1.74 1.56 1.47 1.43 1.34 1.19 1.06 1.05 1.07 0.98 0.86 0.82 0.71 0.62 0.56 0.54 0.51
0.50 0.57 0.65 0.79 0.88 1.00 1.06 1.23 1.46 1.56 1.54 1.51 1.59 1.61 1.63 1.69 1.70 1.58 1.60 1.75 1.98 2.20 2.40 2.31 2.13 2.01 1.90 1.79 1.62 1.54 1.53 1.45 1.26 1.15 1.20 1.24 1.18 0.99 0.80 0.68 0.58 0.55 0.54
0.51 0.56 0.63 0.73 0.86 1.00 1.06 1.09 1.32 1.59 1.61 1.59 1.70 1.76 1.85 1.88 1.85 1.70 1.57 1.62 1.74 1.90 2.05 2.17 2.07 2.08 2.03 1.96 1.83 1.67 1.61 1.63 1.50 1.26 1.32 1.42 1.28 1.03 0.87 0.76 0.67 0.59 0.57
0.51 0.58 0.63 0.74 0.83 0.98 1.16 1.18 1.24 1.48 1.69 1.69 1.67 1.67 1.74 1.74 1.73 1.65 1.54 1.54 1.67 1.78 1.86 1.96 2.01 1.90 1.83 1.80 1.79 1.75 1.62 1.65 1.68 1.50 1.28 1.18 1.13 1.19 1.08 0.87 0.79 0.75 0.69
0.54 0.61 0.66 0.78 0.90 1.04 1.22 1.32 1.35 1.37 1.57 1.64 1.59 1.57 1.58 1.62 1.72 1.73 1.64 1.57 1.65 1.77 1.85 1.87 1.93 1.97 1.86 1.71 1.65 1.69 1.70 1.66 1.63 1.56 1.41 1.22 1.02 0.99 1.14 1.01 0.87 0.88 0.84
0.58 0.63 0.71 0.84 0.99 1.12 1.28 1.39 1.45 1.37 1.42 1.64 1.63 1.51 1.48 1.49 1.59 1.69 1.77 1.73 1.67 1.72 1.81 1.86 1.83 1.83 1.89 1.86 1.71 1.63 1.68 1.64 1.59 1.55 1.48 1.40 1.29 1.10 1.07 1.03 0.84 0.82 0.80
0.58 0.64 0.73 0.87 0.96 1.07 1.20 1.34 1.39 1.39 1.39 1.53 1.64 1.54 1.44 1.44 1.42 1.49 1.59 1.68 1.69 1.65 1.68 1.77 1.80 1.75 1.74 1.79 1.79 1.71 1.67 1.65 1.63 1.57 1.47 1.38 1.29 1.19 1.21 1.24 1.06 0.87 0.77
0.49 0.58 0.68 0.80 0.90 0.94 1.05 1.20 1.30 1.30 1.33 1.47 1.64 1.65 1.52 1.50 1.39 1.38 1.46 1.54 1.56 1.53 1.51 1.56 1.63 1.62 1.57 1.61 1.70 1.68 1.61 1.63 1.65 1.61 1.56 1.48 1.33 1.26 1.33 1.42 1.49 1.32 0.95
0.46 0.52 0.62 0.68 0.74 0.85 0.94 1.04 1.22 1.32 1.32 1.35 1.54 1.75 1.74 1.59 1.47 1.35 1.39 1.45 1.47 1.49 1.52 1.52 1.52 1.46 1.43 1.43 1.47 1.52 1.47 1.50 1.54 1.57 1.60 1.61 1.48 1.38 1.34 1.38 1.57 1.87 1.64
0.49 0.53 0.57 0.60 0.66 0.76 0.85 0.94 1.11 1.25 1.30 1.30 1.37 1.57 1.81 1.75 1.64 1.59 1.43 1.40 1.41 1.45 1.50 1.52 1.51 1.46 1.37 1.38 1.40 1.36 1.30 1.36 1.39 1.44 1.53 1.58 1.52 1.43 1.37 1.41 1.43 1.55 1.75
0.44 0.49 0.52 0.59 0.65 0.71 0.82 0.92 1.03 1.14 1.20 1.21 1.25 1.35 1.57 1.76 1.78 1.71 1.56 1.40 1.39 1.37 1.35 1.38 1.43 1.43 1.38 1.36 1.42 1.39 1.31 1.32 1.33 1.35 1.39 1.41 1.44 1.46 1.38 1.38 1.39 1.36 1.44
0.38 0.43 0.48 0.57 0.62 0.68 0.80 0.87 0.94 1.08 1.16 1.18 1.22 1.28 1.36 1.52 1.73 1.68 1.53 1.37 1.33 1.35 1.35 1.33 1.35 1.36 1.37 1.38 1.41 1.38 1.31 1.30 1.29 1.30 1.28 1.28 1.32 1.40 1.35 1.31 1.27 1.22 1.18
0.37 0.41 0.49 0.52 0.58 0.68 0.74 0.79 0.86 0.98 1.10 1.18 1.21 1.20 1.26 1.33 1.43 1.56 1.50 1.38 1.30 1.28 1.31 1.34 1.34 1.37 1.40 1.40 1.34 1.36 1.31 1.26 1.26 1.27 1.27 1.23 1.29 1.36 1.31 1.30 1.24 1.15 1.08
0.37 0.40 0.47 0.51 0.55 0.63 0.72 0.74 0.84 0.94 0.99 1.08 1.12 1.12 1.11 1.16 1.20 1.30 1.47 1.46 1.37 1.28 1.23 1.22 1.28 1.39 1.55 1.60 1.55 1.56 1.44 1.32 1.26 1.21 1.18 1.20 1.31 1.35 1.37 1.41 1.31 1.24 1.25
0.35 0.40 0.46 0.51 0.56 0.64 0.73 0.78 0.81 0.83 0.87 0.97 1.03 1.07 1.10 1.16 1.19 1.17 1.28 1.44 1.40 1.25 1.17 1.15 1.21 1.32 1.70 2.10 2.10 1.99 1.72 1.42 1.26 1.17 1.14 1.20 1.35 1.41 1.58 1.71 1.59 1.56 1.66
0.39 0.41 0.46 0.50 0.57 0.65 0.75 0.86 0.86 0.84 0.80 0.87 0.95 1.02 1.11 1.24 1.24 1.18 1.22 1.34 1.41 1.34 1.23 1.16 1.16 1.22 1.53 2.23 2.40 2.05 1.59 1.38 1.26 1.20 1.14 1.15 1.28 1.32 1.45 1.64 1.73 1.79 1.91
0.45 0.44 0.48 0.53 0.61 0.67 0.76 0.87 0.89 0.87 0.84 0.83 0.89 0.95 1.01 1.18 1.25 1.22 1.28 1.33 1.39 1.45 1.43 1.27 1.16 1.14 1.33 2.02 2.19 1.92 1.50 1.32 1.25 1.18 1.16 1.16 1.21 1.28 1.26 1.39 1.46 1.50 1.66
0.47 0.47 0.51 0.56 0.59 0.66 0.71 0.78 0.83 0.84 0.88 0.89 0.91 0.95 0.96 1.02 1.16 1.28 1.30 1.32 1.35 1.38 1.44 1.38 1.26 1.17 1.25 1.81 2.01 1.81 1.47 1.33 1.24 1.15 1.13 1.14 1.16 1.27 1.47 1.44 1.40 1.31 1.33
0.50 0.52 0.55 0.58 0.59 0.61 0.65 0.75 0.81 0.82 0.90 0.97 0.97 0.94 0.90 0.94 1.05 1.17 1.28 1.32 1.34 1.29 1.30 1.31 1.30 1.24 1.22 1.59 1.89 1.72 1.41 1.35 1.26 1.14 1.11 1.14 1.14 1.41 1.69 1.59 1.44 1.28 1.19
0.48 0.53 0.55 0.53 0.56 0.60 0.62 0.73 0.81 0.79 0.88 0.95 0.99 0.91 0.82 0.80 0.84 0.96 1.16 1.28 1.29 1.23 1.23 1.24 1.25 1.19 1.13 1.40 1.70 1.70 1.39 1.31 1.25 1.18 1.13 1.27 1.36 1.56 1.70 1.55 1.51 1.60 1.38
0.44 0.47 0.49 0.50 0.59 0.64 0.62 0.69 0.77 0.84 0.89 0.94 1.00 0.91 0.81 0.79 0.81 0.88 1.06 1.20 1.28 1.27 1.21 1.17 1.18 1.14 1.13 1.25 1.46 1.69 1.49 1.32 1.26 1.23 1.18 1.16 1.42 1.52 1.61 1.64 1.59 1.83 1.71
0.37 0.39 0.43 0.48 0.55 0.62 0.65 0.70 0.77 0.83 0.91 0.96 0.94 0.93 0.89 0.85 0.86 0.91 1.04 1.17 1.25 1.32 1.27 1.17 1.14 1.13 1.13 1.23 1.38 1.57 1.61 1.48 1.27 1.16 1.05 1.11 1.35 1.44 1.56 1.56 1.66 1.79 1.70
0.36 0.36 0.41 0.45 0.51 0.58 0.65 0.75 0.81 0.80 0.87 0.92 0.95 0.95 0.95 0.92 0.93 0.97 1.06 1.18 1.25 1.30 1.28 1.20 1.13 1.11 1.06 1.21 1.48 1.43 1.47 1.51 1.30 1.15 1.25 1.32 1.43 1.43 1.36 1.43 1.54 1.53 1.46
0.34 0.36 0.39 0.42 0.51 0.58 0.62 0.72 0.79 0.77 0.77 0.82 0.91 0.91 0.94 0.99 1.02 1.05 1.08 1.16 1.26 1.33 1.23 1.16 1.08 1.03 1.06 1.26 1.43 1.38 1.36 1.45 1.41 1.35 1.40 1.47 1.45 1.35 1.25 1.29 1.30 1.26 1.36
0.38 0.39 0.42 0.44 0.52 0.59 0.66 0.73 0.74 0.72 0.72 0.75 0.87 0.95 0.99 1.04 1.08 1.09 1.13 1.20 1.21 1.35 1.32 1.18 1.10 1.12 1.23 1.43 1.56 1.50 1.43 1.43 1.44 1.52 1.59 1.52 1.43 1.39 1.26 1.16 1.10 1.15 1.31
0.41 0.41 0.43 0.47 0.53 0.60 0.72 0.75 0.71 0.69 0.72 0.76 0.83 0.93 1.01 1.03 1.02 1.01 1.07 1.24 1.26 1.29 1.26 1.20 1.16 1.10 1.28 1.45 1.51 1.58 1.60 1.62 1.69 1.72 1.64 1.42 1.26 1.22 1.18 1.15 1.12 1.08 1.11

GEFSMW_prec_meanprecacc_318.txt.gz
Total_Precipitation_Accumulation
0.48 0.59 0.68 0.82 0.92 1.00 1.12 1.30 1.49 1.61 1.65 1.69 1.69 1.64 1.79 1.89 1.76 1.62 1.76 1.94 2.05 2.16 2.17 2.01 1.90 1.84 1.75 1.57 1.48 1.44 1.35 1.21 1.08 1.07 1.09 1.00 0.88 0.85 0.73 0.63 0.57 0.55 0.51
0.51 0.57 0.66 0.79 0.88 1.00 1.07 1.24 1.47 1.57 1.55 1.52 1.59 1.62 1.65 1.72 1.79 1.71 1.67 1.77 2.00 2.21 2.40 2.31 2.13 2.01 1.91 1.80 1.63 1.55 1.55 1.47 1.27 1.16 1.22 1.26 1.20 1.01 0.83 0.70 0.60 0.57 0.55
0.51 0.56 0.63 0.73 0.86 1.00 1.06 1.09 1.32 1.60 1.62 1.59 1.70 1.76 1.86 1.89 1.87 1.78 1.72 1.73 1.79 1.92 2.06 2.17 2.08 2.08 2.04 1.97 1.84 1.68 1.63 1.66 1.52 1.28 1.34 1.44 1.30 1.04 0.89 0.78 0.68 0.60 0.59
0.51 0.58 0.63 0.74 0.83 0.98 1.17 1.18 1.25 1.49 1.70 1.69 1.67 1.67 1.75 1.75 1.74 1.67 1.60 1.69 1.85 1.89 1.90 1.97 2.02 1.90 1.84 1.80 1.80 1.76 1.64 1.67 1.70 1.52 1.30 1.21 1.16 1.21 1.10 0.88 0.80 0.77 0.70
0.54 0.61 0.67 0.78 0.90 1.04 1.23 1.32 1.36 1.38 1.58 1.65 1.60 1.58 1.59 1.63 1.72 1.73 1.65 1.61 1.75 1.92 1.98 1.95 1.96 1.99 1.87 1.72 1.66 1.71 1.73 1.68 1.65 1.58 1.43 1.24 1.05 1.01 1.17 1.03 0.89 0.90 0.87
0.59 0.63 0.71 0.84 0.99 1.12 1.28 1.39 1.46 1.38 1.43 1.65 1.64 1.52 1.49 1.50 1.59 1.70 1.77 1.74 1.69 1.77 1.89 1.97 1.93 1.90 1.92 1.88 1.72 1.65 1.70 1.67 1.62 1.57 1.50 1.42 1.32 1.13 1.10 1.07 0.87 0.85 0.83
0.58 0.64 0.73 0.87 0.96 1.07 1.21 1.35 1.39 1.40 1.40 1.54 1.64 1.54 1.45 1.44 1.43 1.50 1.60 1.69 1.70 1.66 1.70 1.81 1.86 1.83 1.82 1.84 1.82 1.73 1.70 1.68 1.66 1.61 1.51 1.41 1.32 1.23 1.25 1.29 1.11 0.92 0.81
0.49 0.58 0.68 0.80 0.91 0.94 1.05 1.21 1.30 1.30 1.34 1.47 1.65 1.66 1.52 1.51 1.40 1.39 1.47 1.55 1.57 1.54 1.51 1.57 1.66 1.65 1.61 1.65 1.75 1.72 1.64 1.66 1.69 1.64 1.59 1.52 1.36 1.29 1.37 1.46 1.54 1.38 1.00
0.46 0.53 0.62 0.68 0.74 0.85 0.94 1.05 1.23 1.32 1.33 1.36 1.55 1.75 1.75 1.60 1.49 1.36 1.40 1.46 1.49 1.50 1.53 1.52 1.54 1.49 1.46 1.47 1.51 1.55 1.50 1.53 1.57 1.60 1.63 1.65 1.51 1.41 1.36 1.41 1.61 1.92 1.69
0.49 0.53 0.57 0.60 0.66 0.77 0.85 0.94 1.11 1.25 1.31 1.31 1.38 1.58 1.81 1.75 1.65 1.60 1.43 1.41 1.42 1.46 1.50 1.52 1.51 1.47 1.38 1.41 1.43 1.39 1.33 1.38 1.42 1.46 1.55 1.61 1.54 1.45 1.39 1.43 1.46 1.58 1.79
0.44 0.49 0.52 0.59 0.65 0.72 0.83 0.92 1.03 1.14 1.21 1.22 1.26 1.36 1.58 1.76 1.78 1.72 1.57 1.41 1.39 1.37 1.35 1.39 1.43 1.43 1.38 1.36 1.43 1.40 1.32 1.33 1.34 1.37 1.41 1.43 1.45 1.48 1.40 1.40 1.41 1.38 1.46
0.38 0.43 0.48 0.57 0.62 0.69 0.80 0.87 0.95 1.08 1.16 1.18 1.22 1.29 1.37 1.52 1.74 1.68 1.54 1.38 1.33 1.35 1.36 1.33 1.35 1.36 1.38 1.38 1.41 1.38 1.32 1.31 1.30 1.31 1.30 1.30 1.34 1.41 1.36 1.32 1.29 1.24 1.20
0.37 0.42 0.50 0.52 0.58 0.68 0.74 0.79 0.86 0.99 1.10 1.18 1.21 1.20 1.26 1.34 1.44 1.57 1.51 1.39 1.31 1.29 1.31 1.34 1.34 1.38 1.40 1.40 1.35 1.36 1.31 1.26 1.27 1.28 1.28 1.24 1.30 1.38 1.33 1.32 1.26 1.16 1.09
0.37 0.40 0.47 0.51 0.55 0.63 0.73 0.75 0.84 0.94 0.99 1.08 1.13 1.12 1.12 1.17 1.21 1.31 1.48 1.47 1.37 1.28 1.23 1.22 1.28 1.39 1.55 1.60 1.55 1.57 1.45 1.33 1.27 1.22 1.19 1.21 1.32 1.36 1.38 1.42 1.32 1.25 1.26
0.35 0.40 0.46 0.51 0.56 0.64 0.73 0.78 0.82 0.83 0.87 0.98 1.03 1.08 1.10 1.17 1.20 1.17 1.28 1.45 1.40 1.25 1.17 1.15 1.21 1.32 1.70 2.10 2.11 2.00 1.72 1.43 1.27 1.18 1.16 1.22 1.36 1.42 1.59 1.72 1.60 1.57 1.67
0.39 0.41 0.46 0.50 0.57 0.65 0.75 0.86 0.87 0.85 0.80 0.87 0.96 1.03 1.12 1.25 1.26 1.20 1.23 1.35 1.42 1.34 1.23 1.16 1.16 1.22 1.53 2.24 2.41 2.06 1.60 1.39 1.27 1.21 1.15 1.16 1.29 1.33 1.46 1.66 1.75 1.80 1.93
0.45 0.44 0.48 0.53 0.61 0.67 0.76 0.87 0.90 0.88 0.84 0.84 0.91 0.97 1.03 1.20 1.26 1.24 1.29 1.33 1.39 1.45 1.43 1.27 1.16 1.14 1.34 2.03 2.20 1.93 1.51 1.33 1.25 1.19 1.18 1.17 1.23 1.30 1.27 1.41 1.48 1.52 1.68
0.47 0.47 0.51 0.56 0.59 0.66 0.71 0.78 0.84 0.85 0.89 0.90 0.92 0.98 0.98 1.04 1.18 1.29 1.31 1.33 1.35 1.38 1.44 1.38 1.26 1.17 1.25 1.82 2.02 1.83 1.48 1.34 1.25 1.16 1.15 1.16 1.18 1.28 1.49 1.46 1.42 1.33 1.35
0.50 0.52 0.55 0.58 0.59 0.61 0.65 0.75 0.81 0.83 0.91 0.98 0.99 0.97 0.93 0.96 1.07 1.18 1.29 1.33 1.34 1.29 1.31 1.31 1.30 1.24 1.23 1.61 1.90 1.73 1.42 1.36 1.27 1.15 1.12 1.15 1.16 1.42 1.70 1.60 1.46 1.30 1.22
0.48 0.53 0.55 0.53 0.57 0.60 0.62 0.73 0.81 0.80 0.89 0.96 1.01 0.93 0.84 0.82 0.86 0.97 1.17 1.28 1.30 1.24 1.23 1.24 1.26 1.19 1.14 1.42 1.72 1.72 1.40 1.32 1.26 1.19 1.14 1.28 1.38 1.58 1.72 1.57 1.52 1.62 1.40
0.45 0.47 0.49 0.50 0.59 0.64 0.62 0.69 0.78 0.84 0.89 0.95 1.02 0.93 0.83 0.81 0.83 0.90 1.07 1.21 1.29 1.28 1.22 1.17 1.19 1.15 1.14 1.27 1.48 1.71 1.51 1.34 1.27 1.24 1.20 1.18 1.44 1.54 1.62 1.65 1.60 1.84 1.72
0.37 0.39 0.43 0.48 0.55 0.62 0.65 0.70 0.77 0.84 0.92 0.97 0.96 0.95 0.92 0.87 0.88 0.92 1.05 1.18 1.26 1.33 1.28 1.18 1.15 1.14 1.13 1.24 1.40 1.60 1.64 1.51 1.29 1.19 1.07 1.13 1.37 1.46 1.57 1.57 1.67 1.81 1.72
0.36 0.37 0.41 0.45 0.52 0.59 0.65 0.76 0.81 0.81 0.88 0.93 0.96 0.97 0.97 0.94 0.94 0.98 1.07 1.19 1.26 1.31 1.29 1.21 1.14 1.12 1.07 1.23 1.51 1.46 1.50 1.55 1.33 1.18 1.28 1.35 1.45 1.45 1.38 1.46 1.57 1.56 1.48
0.35 0.36 0.39 0.43 0.51 0.58 0.62 0.72 0.80 0.78 0.78 0.83 0.92 0.93 0.96 1.01 1.03 1.06 1.09 1.16 1.26 1.33 1.24 1.17 1.10 1.04 1.07 1.27 1.45 1.40 1.39 1.47 1.44 1.38 1.43 1.50 1.47 1.37 1.27 1.31 1.33 1.28 1.38
0.38 0.39 0.42 0.44 0.52 0.60 0.66 0.73 0.75 0.73 0.73 0.76 0.88 0.96 1.00 1.05 1.09 1.10 1.14 1.21 1.22 1.36 1.33 1.19 1.11 1.13 1.25 1.44 1.57 1.52 1.45 1.45 1.46 1.55 1.61 1.54 1.45 1.41 1.29 1.19 1.13 1.17 1.34
0.42 0.42 0.43 0.48 0.54 0.61 0.72 0.76 0.72 0.70 0.73 0.77 0.84 0.94 1.02 1.03 1.03 1.02 1.08 1.24 1.27 1.30 1.27 1.21 1.17 1.11 1.30 1.46 1.52 1.60 1.62 1.64 1.71 1.74 1.66 1.44 1.29 1.24 1.20 1.17 1.15 1.11 1.14

GEFSMW_prec_meanprecacc_324.txt.gz
Total_Precipitation_Accumulation
0.48 0.59 0.68 0.82 0.92 1.01 1.12 1.31 1.50 1.62 1.67 1.72 1.70 1.65 1.80 1.91 1.80 1.69 1.81 1.98 2.09 2.18 2.19 2.03 1.91 1.84 1.75 1.57 1.49 1.45 1.36 1.21 1.08 1.07 1.10 1.00 0.89 0.86 0.74 0.63 0.58 0.55 0.52
0.51 0.57 0.66 0.79 0.88 1.00 1.07 1.24 1.48 1.58 1.56 1.54 1.61 1.62 1.65 1.73 1.81 1.77 1.77 1.88 2.07 2.24 2.42 2.33 2.15 2.02 1.91 1.80 1.64 1.56 1.56 1.47 1.28 1.17 1.22 1.27 1.21 1.02 0.84 0.72 0.60 0.57 0.56
0.51 0.56 0.63 0.73 0.86 1.00 1.06 1.10 1.33 1.61 1.63 1.62 1.72 1.77 1.87 1.89 1.88 1.79 1.76 1.84 1.93 2.04 2.12 2.20 2.10 2.09 2.04 1.97 1.85 1.69 1.63 1.66 1.53 1.29 1.35 1.45 1.31 1.05 0.90 0.80 0.70 0.62 0.60
0.51 0.58 0.63 0.74 0.83 0.98 1.17 1.18 1.25 1.50 1.71 1.71 1.69 1.68 1.75 1.76 1.75 1.68 1.60 1.71 1.91 2.01 2.03 2.06 2.06 1.92 1.85 1.81 1.81 1.77 1.64 1.67 1.71 1.53 1.31 1.21 1.17 1.23 1.11 0.89 0.81 0.78 0.72
0.54 0.61 0.67 0.78 0.90 1.04 1.23 1.33 1.36 1.39 1.59 1.67 1.61 1.59 1.60 1.63 1.73 1.74 1.66 1.61 1.76 1.97 2.07 2.06 2.07 2.06 1.90 1.73 1.67 1.71 1.73 1.68 1.65 1.58 1.43 1.25 1.06 1.02 1.18 1.04 0.90 0.93 0.89
0.59 0.63 0.71 0.84 0.99 1.12 1.28 1.40 1.47 1.38 1.44 1.67 1.65 1.53 1.49 1.50 1.60 1.70 1.78 1.75 1.70 1.77 1.92 2.02 2.00 2.00 2.01 1.94 1.75 1.66 1.71 1.67 1.62 1.58 1.51 1.43 1.32 1.13 1.11 1.07 0.88 0.86 0.86
0.58 0.65 0.73 0.87 0.96 1.07 1.21 1.35 1.39 1.40 1.40 1.55 1.66 1.56 1.45 1.45 1.43 1.50 1.61 1.69 1.70 1.66 1.70 1.82 1.88 1.86 1.87 1.93 1.90 1.79 1.73 1.69 1.67 1.61 1.51 1.41 1.33 1.23 1.26 1.30 1.12 0.93 0.82
0.49 0.59 0.68 0.80 0.91 0.94 1.05 1.21 1.30 1.31 1.34 1.48 1.65 1.67 1.54 1.51 1.41 1.40 1.48 1.56 1.58 1.54 1.52 1.58 1.67 1.66 1.62 1.68 1.80 1.80 1.72 1.71 1.72 1.67 1.61 1.53 1.37 1.30 1.38 1.48 1.56 1.40 1.01
0.46 0.53 0.63 0.68 0.74 0.85 0.94 1.05 1.23 1.32 1.33 1.36 1.55 1.76 1.76 1.61 1.49 1.38 1.41 1.47 1.49 1.50 1.53 1.53 1.54 1.49 1.47 1.48 1.52 1.58 1.56 1.60 1.64 1.66 1.68 1.68 1.54 1.43 1.38 1.42 1.63 1.95 1.72
0.49 0.53 0.58 0.61 0.66 0.77 0.85 0.94 1.12 1.26 1.31 1.32 1.38 1.58 1.82 1.76 1.66 1.61 1.45 1.42 1.43 1.46 1.51 1.52 1.52 1.47 1.39 1.41 1.44 1.40 1.35 1.42 1.48 1.53 1.61 1.65 1.58 1.49 1.42 1.46 1.48 1.60 1.81
0.44 0.49 0.52 0.59 0.65 0.72 0.83 0.93 1.04 1.14 1.21 1.22 1.26 1.36 1.59 1.77 1.79 1.73 1.59 1.42 1.40 1.37 1.35 1.39 1.43 1.43 1.38 1.36 1.43 1.40 1.33 1.35 1.36 1.39 1.43 1.46 1.48 1.51 1.44 1.43 1.44 1.41 1.48
0.38 0.44 0.48 0.57 0.62 0.69 0.80 0.87 0.95 1.09 1.17 1.19 1.22 1.29 1.37 1.53 1.74 1.69 1.55 1.39 1.35 1.36 1.36 1.33 1.35 1.36 1.38 1.39 1.41 1.39 1.32 1.31 1.31 1.31 1.31 1.31 1.35 1.43 1.38 1.35 1.32 1.27 1.23
0.37 0.42 0.50 0.52 0.58 0.68 0.74 0.79 0.86 0.99 1.10 1.18 1.21 1.20 1.26 1.34 1.44 1.57 1.52 1.40 1.32 1.30 1.33 1.35 1.34 1.38 1.41 1.40 1.35 1.36 1.32 1.27 1.27 1.28 1.28 1.24 1.31 1.38 1.34 1.33 1.27 1.18 1.11
0.37 0.40 0.47 0.51 0.55 0.63 0.73 0.75 0.84 0.94 0.99 1.09 1.13 1.13 1.12 1.17 1.21 1.31 1.48 1.48 1.38 1.29 1.25 1.24 1.29 1.39 1.55 1.60 1.55 1.57 1.45 1.33 1.27 1.22 1.19 1.21 1.33 1.36 1.38 1.43 1.33 1.26 1.28
0.35 0.40 0.46 0.51 0.56 0.64 0.73 0.78 0.82 0.84 0.87 0.98 1.03 1.08 1.11 1.17 1.21 1.18 1.29 1.46 1.41 1.26 1.18 1.17 1.23 1.33 1.70 2.10 2.11 2.00 1.72 1.43 1.27 1.18 1.16 1.22 1.37 1.43 1.61 1.74 1.62 1.59 1.69
0.39 0.41 0.46 0.50 0.57 0.65 0.75 0.87 0.87 0.86 0.81 0.87 0.96 1.03 1.12 1.25 1.26 1.21 1.25 1.36 1.43 1.35 1.24 1.18 1.18 1.23 1.54 2.24 2.42 2.07 1.60 1.39 1.27 1.21 1.16 1.16 1.30 1.34 1.47 1.67 1.76 1.82 1.95
0.45 0.44 0.48 0.53 0.61 0.67 0.76 0.87 0.90 0.89 0.85 0.85 0.91 0.97 1.03 1.20 1.26 1.25 1.30 1.35 1.41 1.47 1.45 1.29 1.18 1.15 1.34 2.03 2.21 1.94 1.52 1.33 1.26 1.19 1.18 1.18 1.23 1.30 1.28 1.42 1.49 1.53 1.69
0.47 0.47 0.51 0.56 0.59 0.66 0.71 0.78 0.84 0.85 0.90 0.90 0.93 0.98 0.98 1.04 1.19 1.30 1.33 1.35 1.37 1.40 1.46 1.41 1.29 1.18 1.26 1.83 2.03 1.83 1.49 1.34 1.26 1.17 1.15 1.16 1.19 1.29 1.50 1.47 1.43 1.34 1.36
0.50 0.52 0.56 0.59 0.60 0.61 0.65 0.75 0.81 0.83 0.92 0.98 0.99 0.97 0.93 0.96 1.08 1.19 1.30 1.35 1.36 1.32 1.33 1.33 1.32 1.26 1.24 1.62 1.91 1.74 1.42 1.37 1.27 1.15 1.13 1.16 1.17 1.44 1.72 1.62 1.47 1.31 1.23
0.48 0.53 0.55 0.53 0.57 0.60 0.63 0.73 0.81 0.80 0.89 0.96 1.01 0.93 0.84 0.83 0.86 0.98 1.18 1.30 1.32 1.26 1.26 1.26 1.27 1.21 1.15 1.43 1.73 1.73 1.42 1.33 1.26 1.19 1.15 1.30 1.40 1.59 1.73 1.58 1.53 1.62 1.41
0.45 0.47 0.49 0.50 0.59 0.64 0.63 0.70 0.78 0.84 0.89 0.95 1.02 0.93 0.83 0.82 0.83 0.91 1.09 1.23 1.31 1.31 1.24 1.19 1.20 1.15 1.14 1.28 1.49 1.72 1.52 1.35 1.28 1.25 1.21 1.19 1.45 1.55 1.63 1.66 1.61 1.85 1.73
0.37 0.39 0.43 0.48 0.55 0.62 0.65 0.71 0.78 0.84 0.92 0.97 0.96 0.95 0.92 0.87 0.89 0.93 1.06 1.21 1.29 1.37 1.31 1.20 1.16 1.14 1.14 1.25 1.41 1.61 1.66 1.53 1.30 1.20 1.08 1.14 1.39 1.47 1.58 1.58 1.68 1.82 1.74
0.36 0.37 0.41 0.45 0.52 0.59 0.65 0.76 0.82 0.82 0.88 0.94 0.96 0.97 0.97 0.94 0.95 0.99 1.08 1.20 1.28 1.33 1.32 1.23 1.15 1.13 1.08 1.23 1.51 1.47 1.52 1.56 1.35 1.19 1.29 1.36 1.47 1.47 1.40 1.47 1.58 1.57 1.49
0.36 0.37 0.40 0.43 0.51 0.58 0.62 0.72 0.80 0.79 0.78 0.83 0.93 0.93 0.96 1.01 1.04 1.07 1.10 1.18 1.28 1.35 1.26 1.19 1.11 1.05 1.08 1.28 1.46 1.41 1.40 1.48 1.46 1.39 1.44 1.51 1.49 1.39 1.30 1.34 1.34 1.30 1.40
0.40 0.40 0.43 0.45 0.52 0.60 0.66 0.73 0.75 0.74 0.74 0.77 0.88 0.96 1.00 1.06 1.09 1.11 1.15 1.22 1.23 1.37 1.34 1.20 1.13 1.15 1.26 1.45 1.58 1.53 1.46 1.47 1.48 1.57 1.63 1.55 1.46 1.43 1.31 1.21 1.15 1.19 1.36
0.43 0.43 0.44 0.49 0.54 0.61 0.72 0.76 0.72 0.71 0.74 0.78 0.84 0.94 1.02 1.04 1.03 1.02 1.09 1.26 1.28 1.32 1.28 1.22 1.19 1.13 1.31 1.47 1.53 1.61 1.64 1.66 1.72 1.76 1.68 1.45 1.30 1.26 1.22 1.20 1.17 1.12 1.16

GEFSMW_prec_meanprecacc_330.txt.gz
Total_Precipitation_Accumulation
0.49 0.60 0.69 0.83 0.94 1.02 1.14 1.32 1.52 1.63 1.68 1.74 1.72 1.67 1.82 1.93 1.83 1.73 1.87 2.06 2.20 2.32 2.30 2.12 1.97 1.88 1.76 1.58 1.49 1.45 1.36 1.21 1.08 1.08 1.10 1.00 0.89 0.86 0.75 0.64 0.58 0.55 0.52
0.51 0.58 0.66 0.80 0.89 1.01 1.08 1.26 1.49 1.59 1.58 1.56 1.63 1.64 1.67 1.75 1.83 1.79 1.80 1.91 2.12 2.32 2.54 2.44 2.25 2.09 1.95 1.81 1.64 1.56 1.56 1.47 1.28 1.17 1.23 1.27 1.21 1.03 0.84 0.72 0.60 0.58 0.57
0.52 0.56 0.63 0.74 0.86 1.01 1.07 1.11 1.35 1.63 1.65 1.63 1.74 1.79 1.89 1.92 1.90 1.80 1.77 1.85 1.96 2.09 2.20 2.29 2.18 2.17 2.10 2.00 1.86 1.70 1.64 1.67 1.53 1.29 1.36 1.46 1.32 1.05 0.90 0.80 0.70 0.62 0.60
0.52 0.58 0.64 0.75 0.83 0.99 1.17 1.19 1.26 1.51 1.73 1.72 1.71 1.70 1.77 1.77 1.77 1.70 1.62 1.73 1.93 2.03 2.07 2.14 2.15 2.00 1.93 1.87 1.85 1.79 1.66 1.68 1.71 1.54 1.31 1.22 1.17 1.23 1.11 0.89 0.82 0.79 0.72
0.54 0.61 0.67 0.78 0.90 1.04 1.23 1.33 1.37 1.40 1.61 1.68 1.62 1.60 1.61 1.65 1.75 1.75 1.68 1.63 1.78 1.99 2.09 2.08 2.11 2.12 1.97 1.80 1.74 1.78 1.77 1.70 1.66 1.59 1.44 1.25 1.06 1.03 1.19 1.04 0.90 0.93 0.90
0.59 0.63 0.71 0.84 0.99 1.12 1.29 1.40 1.47 1.39 1.45 1.68 1.66 1.54 1.50 1.52 1.62 1.72 1.79 1.77 1.72 1.79 1.94 2.05 2.02 2.02 2.05 1.98 1.81 1.74 1.78 1.72 1.64 1.59 1.51 1.43 1.33 1.14 1.12 1.08 0.88 0.86 0.86
0.58 0.65 0.73 0.87 0.96 1.07 1.21 1.35 1.40 1.41 1.41 1.56 1.66 1.56 1.46 1.46 1.45 1.52 1.63 1.71 1.72 1.68 1.72 1.84 1.90 1.88 1.89 1.95 1.93 1.83 1.78 1.76 1.73 1.65 1.53 1.42 1.33 1.24 1.26 1.30 1.12 0.93 0.82
0.49 0.59 0.68 0.80 0.91 0.94 1.06 1.21 1.31 1.31 1.36 1.49 1.66 1.68 1.54 1.52 1.41 1.41 1.50 1.58 1.59 1.55 1.53 1.59 1.68 1.68 1.64 1.71 1.82 1.82 1.74 1.74 1.76 1.71 1.64 1.55 1.38 1.31 1.38 1.48 1.56 1.40 1.01
0.47 0.53 0.63 0.68 0.74 0.85 0.94 1.05 1.23 1.33 1.34 1.38 1.57 1.77 1.76 1.62 1.50 1.38 1.42 1.49 1.51 1.52 1.54 1.54 1.55 1.50 1.48 1.49 1.54 1.60 1.58 1.62 1.66 1.68 1.70 1.71 1.57 1.45 1.39 1.43 1.64 1.96 1.73
0.49 0.54 0.58 0.61 0.66 0.77 0.85 0.94 1.12 1.27 1.33 1.33 1.40 1.60 1.83 1.77 1.67 1.62 1.46 1.43 1.44 1.47 1.52 1.53 1.52 1.47 1.39 1.42 1.45 1.41 1.35 1.43 1.49 1.54 1.62 1.67 1.60 1.51 1.44 1.48 1.50 1.62 1.83
0.45 0.49 0.52 0.59 0.65 0.72 0.83 0.93 1.04 1.15 1.22 1.24 1.29 1.38 1.60 1.78 1.79 1.74 1.60 1.44 1.42 1.39 1.36 1.40 1.44 1.44 1.38 1.36 1.44 1.41 1.34 1.35 1.37 1.40 1.44 1.47 1.49 1.52 1.45 1.45 1.46 1.43 1.51
0.39 0.44 0.48 0.57 0.62 0.69 0.80 0.87 0.95 1.09 1.17 1.20 1.24 1.31 1.38 1.54 1.75 1.70 1.56 1.40 1.36 1.37 1.37 1.34 1.36 1.37 1.38 1.39 1.42 1.39 1.32 1.32 1.31 1.32 1.32 1.32 1.36 1.44 1.39 1.36 1.33 1.28 1.24
0.38 0.42 0.50 0.52 0.58 0.68 0.75 0.79 0.86 0.99 1.11 1.19 1.23 1.22 1.27 1.35 1.46 1.58 1.52 1.40 1.33 1.32 1.34 1.35 1.35 1.38 1.41 1.41 1.35 1.37 1.33 1.28 1.28 1.29 1.29 1.25 1.31 1.39 1.34 1.33 1.28 1.19 1.12
0.38 0.40 0.47 0.51 0.55 0.63 0.73 0.75 0.84 0.95 0.99 1.09 1.14 1.14 1.14 1.18 1.23 1.33 1.50 1.48 1.39 1.30 1.26 1.26 1.30 1.40 1.57 1.61 1.56 1.58 1.46 1.34 1.28 1.23 1.20 1.22 1.33 1.37 1.39 1.44 1.34 1.27 1.29
0.36 0.40 0.46 0.51 0.56 0.64 0.73 0.78 0.82 0.84 0.87 0.98 1.04 1.09 1.13 1.20 1.23 1.20 1.31 1.47 1.42 1.27 1.19 1.19 1.25 1.35 1.72 2.12 2.13 2.02 1.73 1.43 1.27 1.18 1.16 1.22 1.38 1.44 1.62 1.75 1.63 1.60 1.70
0.40 0.41 0.47 0.50 0.57 0.65 0.75 0.87 0.87 0.86 0.81 0.88 0.97 1.03 1.13 1.27 1.28 1.22 1.25 1.37 1.44 1.36 1.25 1.19 1.20 1.26 1.57 2.27 2.44 2.09 1.61 1.40 1.27 1.21 1.16 1.16 1.30 1.34 1.48 1.68 1.77 1.83 1.96
0.45 0.45 0.49 0.54 0.62 0.67 0.76 0.88 0.90 0.89 0.86 0.86 0.91 0.97 1.03 1.20 1.27 1.25 1.31 1.36 1.42 1.48 1.46 1.30 1.19 1.17 1.37 2.06 2.24 1.96 1.53 1.34 1.26 1.20 1.18 1.18 1.23 1.31 1.29 1.42 1.50 1.54 1.70
0.47 0.47 0.52 0.57 0.60 0.66 0.71 0.79 0.84 0.86 0.90 0.91 0.93 0.98 0.99 1.04 1.19 1.30 1.33 1.35 1.38 1.41 1.47 1.42 1.31 1.20 1.28 1.85 2.05 1.86 1.50 1.35 1.26 1.17 1.15 1.16 1.19 1.30 1.50 1.47 1.43 1.34 1.36
0.50 0.52 0.56 0.59 0.61 0.62 0.66 0.76 0.82 0.83 0.92 0.99 1.00 0.97 0.94 0.97 1.08 1.19 1.31 1.35 1.37 1.33 1.33 1.33 1.33 1.28 1.26 1.64 1.93 1.76 1.44 1.38 1.28 1.15 1.13 1.16 1.17 1.44 1.72 1.62 1.48 1.31 1.23
0.48 0.53 0.55 0.53 0.58 0.61 0.64 0.74 0.82 0.80 0.90 0.97 1.02 0.93 0.84 0.83 0.86 0.98 1.18 1.30 1.32 1.27 1.26 1.27 1.28 1.22 1.17 1.45 1.75 1.75 1.43 1.34 1.27 1.20 1.15 1.30 1.40 1.60 1.74 1.59 1.54 1.63 1.41
0.45 0.47 0.49 0.50 0.59 0.65 0.64 0.71 0.79 0.85 0.89 0.96 1.02 0.93 0.83 0.82 0.83 0.91 1.09 1.23 1.32 1.31 1.24 1.19 1.20 1.16 1.15 1.29 1.51 1.74 1.54 1.37 1.29 1.26 1.21 1.19 1.45 1.56 1.64 1.67 1.62 1.86 1.74
0.37 0.39 0.43 0.48 0.56 0.62 0.66 0.72 0.79 0.85 0.93 0.98 0.96 0.96 0.92 0.87 0.89 0.93 1.06 1.21 1.30 1.37 1.32 1.21 1.17 1.15 1.15 1.26 1.42 1.62 1.67 1.54 1.31 1.21 1.09 1.14 1.39 1.48 1.59 1.59 1.69 1.83 1.75
0.36 0.37 0.41 0.45 0.52 0.59 0.66 0.77 0.83 0.83 0.90 0.95 0.97 0.97 0.97 0.94 0.95 0.99 1.08 1.20 1.28 1.33 1.32 1.23 1.16 1.14 1.09 1.24 1.52 1.47 1.53 1.58 1.36 1.21 1.31 1.38 1.48 1.48 1.40 1.48 1.59 1.58 1.50
0.36 0.37 0.40 0.43 0.51 0.58 0.62 0.73 0.81 0.79 0.79 0.85 0.93 0.94 0.97 1.01 1.04 1.07 1.10 1.18 1.28 1.35 1.26 1.19 1.11 1.06 1.08 1.28 1.47 1.42 1.40 1.49 1.47 1.41 1.46 1.53 1.50 1.40 1.30 1.34 1.35 1.30 1.40
0.40 0.41 0.43 0.45 0.53 0.60 0.66 0.73 0.75 0.74 0.75 0.78 0.89 0.97 1.01 1.06 1.09 1.11 1.15 1.22 1.23 1.37 1.35 1.21 1.13 1.15 1.27 1.46 1.59 1.54 1.47 1.48 1.49 1.58 1.64 1.56 1.47 1.44 1.32 1.21 1.15 1.20 1.36
0.45 0.44 0.46 0.50 0.55 0.62 0.73 0.76 0.73 0.71 0.74 0.79 0.85 0.95 1.03 1.04 1.04 1.03 1.09 1.26 1.28 1.32 1.28 1.22 1.19 1.13 1.32 1.48 1.54 1.62 1.65 1.67 1.74 1.77 1.69 1.46 1.31 1.27 1.23 1.21 1.18 1.13 1.16

GEFSMW_prec_meanprecacc_336.txt.gz
Total_Precipitation_Accumulation
0.50 0.60 0.70 0.85 0.96 1.04 1.15 1.36 1.56 1.67 1.71 1.77 1.75 1.68 1.83 1.94 1.85 1.75 1.90 2.11 2.27 2.43 2.45 2.26 2.10 2.00 1.87 1.64 1.54 1.50 1.40 1.23 1.08 1.08 1.10 1.00 0.89 0.86 0.75 0.64 0.58 0.56 0.52
0.52 0.58 0.67 0.82 0.91 1.03 1.09 1.27 1.52 1.63 1.61 1.59 1.66 1.66 1.69 1.77 1.85 1.81 1.81 1.93 2.15 2.36 2.60 2.51 2.33 2.19 2.07 1.94 1.72 1.61 1.59 1.50 1.29 1.18 1.23 1.27 1.22 1.03 0.84 0.72 0.61 0.58 0.57
0.52 0.57 0.64 0.75 0.87 1.03 1.08 1.12 1.36 1.64 1.67 1.65 1.78 1.82 1.91 1.94 1.92 1.82 1.79 1.86 1.97 2.10 2.22 2.32 2.22 2.22 2.17 2.09 1.95 1.77 1.69 1.70 1.55 1.30 1.37 1.46 1.32 1.05 0.90 0.80 0.70 0.62 0.60
0.52 0.59 0.64 0.75 0.84 1.00 1.18 1.21 1.28 1.53 1.75 1.74 1.73 1.72 1.78 1.79 1.78 1.71 1.64 1.75 1.95 2.04 2.08 2.15 2.16 2.02 1.96 1.92 1.92 1.88 1.75 1.77 1.77 1.57 1.33 1.23 1.18 1.23 1.11 0.89 0.82 0.79 0.73
0.55 0.62 0.67 0.79 0.91 1.05 1.24 1.34 1.38 1.42 1.62 1.70 1.64 1.62 1.63 1.66 1.76 1.77 1.69 1.65 1.80 2.01 2.11 2.09 2.12 2.13 1.98 1.82 1.76 1.82 1.83 1.77 1.72 1.63 1.46 1.27 1.07 1.03 1.19 1.05 0.90 0.93 0.90
0.59 0.64 0.71 0.85 0.99 1.13 1.30 1.41 1.49 1.41 1.47 1.70 1.68 1.56 1.52 1.53 1.62 1.72 1.80 1.78 1.73 1.81 1.96 2.06 2.03 2.03 2.06 1.99 1.81 1.74 1.79 1.75 1.69 1.63 1.54 1.46 1.35 1.15 1.12 1.08 0.88 0.86 0.86
0.58 0.65 0.73 0.87 0.96 1.08 1.22 1.36 1.41 1.42 1.43 1.57 1.68 1.58 1.48 1.47 1.46 1.53 1.64 1.72 1.73 1.69 1.73 1.85 1.91 1.89 1.90 1.96 1.94 1.84 1.79 1.76 1.75 1.68 1.56 1.45 1.35 1.25 1.28 1.32 1.13 0.93 0.82
0.50 0.59 0.68 0.80 0.91 0.95 1.06 1.22 1.32 1.33 1.37 1.51 1.67 1.69 1.56 1.53 1.42 1.42 1.51 1.59 1.60 1.57 1.55 1.60 1.70 1.69 1.66 1.71 1.83 1.83 1.74 1.74 1.76 1.72 1.67 1.59 1.41 1.33 1.40 1.50 1.58 1.41 1.02
0.47 0.53 0.63 0.68 0.74 0.85 0.94 1.06 1.24 1.34 1.35 1.39 1.58 1.79 1.78 1.63 1.51 1.39 1.43 1.49 1.52 1.53 1.56 1.55 1.57 1.52 1.51 1.51 1.55 1.60 1.58 1.62 1.66 1.68 1.70 1.72 1.58 1.46 1.41 1.45 1.65 1.97 1.74
0.50 0.54 0.58 0.61 0.67 0.77 0.85 0.95 1.12 1.27 1.33 1.34 1.42 1.61 1.85 1.78 1.68 1.63 1.47 1.44 1.45 1.49 1.54 1.55 1.54 1.49 1.42 1.45 1.47 1.43 1.36 1.44 1.49 1.54 1.62 1.67 1.60 1.51 1.45 1.49 1.51 1.63 1.84
0.45 0.50 0.53 0.60 0.65 0.72 0.83 0.93 1.04 1.15 1.23 1.25 1.30 1.40 1.61 1.79 1.81 1.75 1.61 1.44 1.42 1.40 1.38 1.42 1.47 1.47 1.41 1.39 1.48 1.45 1.36 1.36 1.38 1.41 1.45 1.47 1.50 1.53 1.45 1.45 1.47 1.44 1.52
0.40 0.45 0.49 0.57 0.62 0.69 0.80 0.87 0.95 1.09 1.18 1.21 1.26 1.33 1.40 1.56 1.77 1.71 1.57 1.41 1.36 1.38 1.38 1.35 1.38 1.41 1.42 1.42 1.45 1.43 1.36 1.34 1.33 1.34 1.33 1.32 1.36 1.44 1.39 1.36 1.33 1.29 1.25
0.39 0.44 0.51 0.53 0.59 0.68 0.75 0.79 0.87 1.00 1.11 1.20 1.24 1.23 1.29 1.37 1.48 1.59 1.53 1.41 1.34 1.32 1.35 1.37 1.36 1.40 1.45 1.45 1.39 1.40 1.36 1.30 1.29 1.31 1.31 1.26 1.32 1.40 1.35 1.34 1.29 1.19 1.13
0.39 0.42 0.48 0.51 0.55 0.64 0.73 0.75 0.85 0.95 1.00 1.10 1.15 1.16 1.15 1.20 1.24 1.34 1.51 1.49 1.40 1.31 1.27 1.28 1.31 1.41 1.58 1.64 1.60 1.61 1.48 1.36 1.30 1.25 1.21 1.23 1.35 1.38 1.40 1.45 1.35 1.28 1.29
0.37 0.42 0.48 0.53 0.58 0.65 0.74 0.79 0.83 0.85 0.88 0.99 1.05 1.10 1.14 1.21 1.24 1.21 1.32 1.48 1.43 1.28 1.20 1.20 1.26 1.36 1.74 2.14 2.15 2.05 1.76 1.45 1.29 1.19 1.17 1.23 1.38 1.45 1.63 1.76 1.64 1.61 1.71
0.40 0.42 0.47 0.51 0.59 0.67 0.77 0.89 0.89 0.88 0.82 0.89 0.98 1.05 1.15 1.29 1.30 1.24 1.27 1.39 1.46 1.37 1.26 1.20 1.21 1.27 1.57 2.29 2.46 2.11 1.65 1.43 1.29 1.22 1.16 1.16 1.30 1.35 1.48 1.68 1.78 1.83 1.96
0.46 0.45 0.49 0.55 0.63 0.69 0.78 0.90 0.92 0.91 0.87 0.87 0.93 0.99 1.06 1.22 1.29 1.27 1.33 1.38 1.45 1.50 1.47 1.31 1.20 1.18 1.38 2.08 2.26 1.98 1.56 1.37 1.28 1.21 1.19 1.18 1.23 1.31 1.29 1.42 1.50 1.54 1.70
0.48 0.48 0.52 0.58 0.61 0.68 0.73 0.81 0.86 0.88 0.93 0.94 0.96 1.00 1.01 1.06 1.21 1.32 1.34 1.37 1.39 1.43 1.49 1.43 1.32 1.21 1.29 1.86 2.07 1.87 1.53 1.38 1.29 1.19 1.17 1.17 1.20 1.30 1.51 1.48 1.43 1.34 1.36
0.51 0.53 0.56 0.60 0.61 0.63 0.69 0.78 0.84 0.86 0.95 1.02 1.01 0.99 0.95 0.98 1.10 1.20 1.31 1.36 1.38 1.34 1.36 1.35 1.35 1.29 1.27 1.64 1.94 1.77 1.45 1.40 1.31 1.18 1.15 1.17 1.18 1.45 1.73 1.63 1.48 1.31 1.23
0.48 0.53 0.55 0.54 0.58 0.62 0.66 0.76 0.84 0.82 0.92 0.99 1.03 0.94 0.85 0.83 0.87 0.99 1.19 1.31 1.33 1.28 1.28 1.29 1.30 1.24 1.18 1.46 1.76 1.75 1.43 1.35 1.29 1.22 1.17 1.31 1.41 1.60 1.74 1.59 1.54 1.64 1.41
0.45 0.47 0.49 0.50 0.60 0.65 0.65 0.72 0.81 0.87 0.91 0.98 1.04 0.94 0.84 0.82 0.84 0.91 1.10 1.24 1.32 1.32 1.25 1.21 1.22 1.18 1.17 1.30 1.52 1.75 1.54 1.37 1.31 1.27 1.22 1.20 1.46 1.57 1.64 1.68 1.62 1.87 1.75
0.37 0.39 0.44 0.48 0.56 0.62 0.66 0.73 0.80 0.87 0.95 1.00 0.98 0.97 0.94 0.89 0.90 0.94 1.07 1.21 1.30 1.37 1.32 1.22 1.19 1.17 1.17 1.27 1.43 1.63 1.67 1.54 1.32 1.22 1.10 1.15 1.40 1.48 1.60 1.60 1.70 1.84 1.75
0.36 0.37 0.41 0.45 0.52 0.59 0.66 0.77 0.83 0.84 0.91 0.96 0.99 0.99 0.99 0.96 0.97 1.00 1.08 1.21 1.28 1.34 1.32 1.23 1.17 1.15 1.10 1.26 1.53 1.48 1.54 1.58 1.37 1.22 1.33 1.39 1.49 1.49 1.41 1.48 1.59 1.59 1.51
0.36 0.37 0.40 0.43 0.51 0.58 0.62 0.73 0.81 0.80 0.81 0.87 0.96 0.96 0.98 1.03 1.06 1.08 1.11 1.18 1.28 1.35 1.27 1.20 1.11 1.06 1.09 1.30 1.48 1.43 1.42 1.51 1.47 1.41 1.47 1.54 1.51 1.40 1.31 1.34 1.36 1.31 1.41
0.40 0.41 0.43 0.46 0.53 0.60 0.67 0.73 0.76 0.75 0.76 0.79 0.92 1.00 1.03 1.08 1.11 1.12 1.16 1.23 1.23 1.38 1.35 1.21 1.13 1.15 1.27 1.47 1.61 1.56 1.49 1.50 1.50 1.59 1.65 1.57 1.48 1.45 1.33 1.22 1.16 1.20 1.37
0.45 0.45 0.46 0.50 0.55 0.62 0.73 0.76 0.73 0.72 0.75 0.80 0.87 0.97 1.05 1.07 1.06 1.04 1.10 1.27 1.29 1.32 1.29 1.23 1.19 1.13 1.32 1.49 1.55 1.63 1.66 1.69 1.75 1.79 1.70 1.47 1.31 1.28 1.23 1.21 1.19 1.13 1.17

GEFSMW_prec_meanprecacc_342.txt.gz
Total_Precipitation_Accumulation
0.50 0.61 0.72 0.88 0.99 1.09 1.23 1.43 1.65 1.75 1.78 1.80 1.76 1.69 1.84 1.95 1.86 1.76 1.91 2.12 2.29 2.46 2.49 2.33 2.21 2.13 1.99 1.73 1.59 1.55 1.45 1.28 1.12 1.10 1.13 1.03 0.90 0.87 0.75 0.64 0.59 0.56 0.52
0.52 0.59 0.68 0.83 0.94 1.07 1.15 1.34 1.58 1.72 1.70 1.65 1.68 1.66 1.69 1.78 1.86 1.82 1.82 1.94 2.16 2.38 2.62 2.55 2.39 2.27 2.18 2.05 1.82 1.67 1.64 1.56 1.34 1.21 1.26 1.30 1.24 1.04 0.85 0.72 0.61 0.58 0.57
0.53 0.57 0.65 0.76 0.89 1.05 1.12 1.17 1.41 1.69 1.75 1.75 1.84 1.85 1.92 1.95 1.93 1.83 1.79 1.87 1.98 2.12 2.24 2.34 2.25 2.27 2.23 2.16 2.03 1.84 1.73 1.75 1.60 1.34 1.40 1.49 1.34 1.06 0.91 0.81 0.71 0.63 0.61
0.53 0.60 0.65 0.77 0.86 1.01 1.21 1.25 1.32 1.56 1.78 1.81 1.83 1.79 1.81 1.80 1.80 1.72 1.65 1.76 1.96 2.05 2.09 2.16 2.19 2.06 2.00 1.96 1.96 1.93 1.80 1.82 1.82 1.60 1.35 1.24 1.19 1.24 1.12 0.90 0.82 0.80 0.73
0.56 0.63 0.68 0.80 0.94 1.07 1.26 1.37 1.41 1.46 1.65 1.73 1.70 1.71 1.69 1.70 1.78 1.78 1.71 1.66 1.81 2.01 2.11 2.10 2.13 2.14 2.01 1.85 1.80 1.85 1.87 1.82 1.77 1.67 1.49 1.29 1.09 1.05 1.20 1.06 0.91 0.93 0.91
0.60 0.65 0.73 0.86 1.02 1.16 1.33 1.43 1.50 1.43 1.50 1.72 1.71 1.60 1.57 1.58 1.66 1.75 1.82 1.79 1.74 1.82 1.96 2.07 2.04 2.04 2.07 2.01 1.83 1.77 1.83 1.80 1.74 1.67 1.57 1.47 1.36 1.16 1.14 1.10 0.90 0.87 0.87
0.59 0.65 0.74 0.89 0.98 1.10 1.25 1.39 1.43 1.43 1.45 1.60 1.69 1.60 1.50 1.49 1.48 1.55 1.66 1.74 1.74 1.70 1.75 1.87 1.93 1.90 1.91 1.96 1.95 1.85 1.81 1.79 1.79 1.72 1.59 1.46 1.36 1.26 1.29 1.33 1.14 0.94 0.82
0.50 0.59 0.69 0.82 0.92 0.96 1.08 1.25 1.34 1.35 1.38 1.53 1.70 1.71 1.57 1.55 1.44 1.44 1.52 1.60 1.62 1.58 1.55 1.62 1.71 1.71 1.66 1.72 1.84 1.84 1.76 1.75 1.77 1.74 1.69 1.61 1.42 1.34 1.41 1.50 1.59 1.42 1.03
0.48 0.54 0.64 0.69 0.75 0.86 0.95 1.07 1.26 1.36 1.37 1.41 1.61 1.81 1.79 1.65 1.53 1.41 1.45 1.52 1.54 1.55 1.57 1.56 1.57 1.54 1.53 1.53 1.56 1.62 1.59 1.63 1.67 1.69 1.71 1.73 1.58 1.47 1.41 1.45 1.66 1.98 1.74
0.51 0.55 0.59 0.61 0.67 0.77 0.86 0.95 1.14 1.29 1.35 1.36 1.44 1.64 1.87 1.80 1.70 1.66 1.49 1.47 1.48 1.50 1.54 1.56 1.55 1.51 1.44 1.48 1.50 1.45 1.38 1.45 1.50 1.55 1.63 1.68 1.61 1.52 1.45 1.49 1.51 1.64 1.85
0.47 0.52 0.54 0.61 0.66 0.72 0.83 0.93 1.05 1.17 1.24 1.26 1.31 1.42 1.64 1.82 1.83 1.77 1.63 1.46 1.44 1.41 1.39 1.42 1.47 1.48 1.42 1.43 1.52 1.49 1.39 1.39 1.40 1.42 1.45 1.48 1.50 1.53 1.46 1.46 1.47 1.44 1.53
0.42 0.48 0.51 0.59 0.63 0.70 0.80 0.88 0.96 1.10 1.19 1.22 1.27 1.34 1.42 1.58 1.79 1.72 1.59 1.43 1.38 1.39 1.39 1.36 1.38 1.41 1.43 1.44 1.48 1.48 1.40 1.37 1.36 1.36 1.34 1.34 1.37 1.45 1.40 1.37 1.34 1.29 1.25
0.42 0.47 0.53 0.54 0.60 0.69 0.75 0.80 0.87 1.01 1.12 1.21 1.25 1.25 1.31 1.38 1.49 1.61 1.54 1.43 1.35 1.34 1.36 1.37 1.36 1.40 1.45 1.47 1.41 1.43 1.40 1.34 1.33 1.33 1.32 1.27 1.33 1.40 1.36 1.35 1.29 1.20 1.13
0.41 0.44 0.50 0.53 0.56 0.64 0.74 0.76 0.86 0.97 1.02 1.12 1.16 1.17 1.16 1.21 1.26 1.36 1.52 1.50 1.41 1.32 1.28 1.28 1.32 1.42 1.59 1.65 1.62 1.64 1.51 1.40 1.34 1.28 1.23 1.25 1.36 1.39 1.41 1.46 1.36 1.29 1.30
0.39 0.43 0.49 0.54 0.59 0.66 0.74 0.80 0.84 0.86 0.89 1.00 1.06 1.11 1.15 1.22 1.26 1.22 1.33 1.49 1.44 1.29 1.21 1.20 1.27 1.37 1.75 2.15 2.17 2.08 1.79 1.48 1.32 1.23 1.20 1.25 1.40 1.46 1.63 1.77 1.64 1.61 1.72
0.41 0.43 0.49 0.54 0.61 0.68 0.78 0.90 0.91 0.89 0.83 0.90 0.99 1.06 1.16 1.30 1.31 1.25 1.29 1.40 1.47 1.38 1.27 1.21 1.22 1.28 1.59 2.31 2.49 2.14 1.68 1.46 1.32 1.25 1.19 1.19 1.33 1.36 1.49 1.69 1.78 1.84 1.97
0.46 0.46 0.50 0.57 0.65 0.71 0.81 0.92 0.95 0.93 0.89 0.89 0.95 1.01 1.07 1.24 1.31 1.28 1.34 1.39 1.46 1.51 1.48 1.32 1.21 1.19 1.40 2.10 2.28 2.01 1.58 1.40 1.31 1.23 1.22 1.21 1.26 1.33 1.30 1.43 1.50 1.54 1.71
0.48 0.48 0.53 0.59 0.63 0.70 0.76 0.84 0.89 0.90 0.94 0.96 0.98 1.03 1.03 1.08 1.23 1.33 1.35 1.38 1.41 1.44 1.50 1.44 1.33 1.22 1.30 1.88 2.08 1.89 1.55 1.41 1.31 1.22 1.19 1.19 1.22 1.32 1.52 1.48 1.44 1.35 1.36
0.51 0.53 0.56 0.61 0.62 0.65 0.71 0.81 0.86 0.87 0.98 1.04 1.04 1.02 0.97 1.00 1.12 1.22 1.33 1.37 1.39 1.36 1.37 1.36 1.36 1.30 1.28 1.66 1.96 1.79 1.47 1.43 1.33 1.20 1.17 1.19 1.19 1.46 1.74 1.64 1.49 1.31 1.23
0.49 0.53 0.56 0.54 0.59 0.63 0.67 0.78 0.85 0.84 0.94 1.03 1.07 0.97 0.88 0.86 0.90 1.01 1.21 1.32 1.34 1.29 1.29 1.30 1.31 1.25 1.19 1.47 1.78 1.78 1.46 1.38 1.32 1.24 1.20 1.34 1.43 1.62 1.76 1.61 1.55 1.64 1.41
0.45 0.48 0.49 0.50 0.60 0.65 0.65 0.73 0.82 0.88 0.93 0.99 1.06 0.97 0.87 0.85 0.86 0.94 1.12 1.26 1.33 1.33 1.27 1.22 1.23 1.19 1.18 1.31 1.53 1.77 1.56 1.40 1.34 1.30 1.25 1.23 1.50 1.59 1.66 1.69 1.64 1.88 1.75
0.37 0.39 0.44 0.48 0.56 0.62 0.67 0.73 0.81 0.88 0.96 1.01 1.00 0.99 0.96 0.91 0.92 0.96 1.10 1.24 1.32 1.39 1.34 1.23 1.20 1.18 1.18 1.28 1.44 1.64 1.69 1.56 1.34 1.24 1.12 1.18 1.44 1.52 1.62 1.62 1.71 1.85 1.77
0.37 0.37 0.41 0.45 0.52 0.59 0.66 0.77 0.84 0.84 0.92 0.97 1.00 1.00 1.01 0.99 0.99 1.02 1.11 1.23 1.31 1.36 1.34 1.25 1.18 1.16 1.12 1.27 1.54 1.49 1.55 1.60 1.38 1.24 1.34 1.42 1.53 1.52 1.43 1.50 1.60 1.59 1.52
0.36 0.37 0.40 0.43 0.52 0.58 0.62 0.73 0.81 0.80 0.81 0.87 0.97 0.97 1.00 1.05 1.08 1.11 1.13 1.20 1.30 1.37 1.28 1.21 1.12 1.07 1.10 1.31 1.49 1.44 1.42 1.52 1.49 1.43 1.49 1.57 1.55 1.44 1.34 1.36 1.36 1.31 1.41
0.41 0.41 0.44 0.46 0.53 0.60 0.67 0.74 0.76 0.75 0.76 0.80 0.92 1.01 1.04 1.10 1.14 1.15 1.19 1.25 1.24 1.39 1.36 1.22 1.14 1.16 1.28 1.48 1.62 1.58 1.50 1.51 1.52 1.60 1.66 1.59 1.51 1.47 1.36 1.24 1.16 1.20 1.37
0.45 0.45 0.46 0.50 0.55 0.62 0.73 0.77 0.73 0.72 0.76 0.81 0.87 0.98 1.07 1.09 1.08 1.07 1.13 1.29 1.31 1.34 1.30 1.24 1.20 1.14 1.32 1.50 1.57 1.65 1.68 1.70 1.77 1.80 1.71 1.49 1.33 1.30 1.25 1.23 1.20 1.14 1.17